| time (UTC) | temp F | wind direction | speed knots | gust knots | rain 1hr in | rain 24hr in | rain mn in | humidity % | barometer mb |
| 20260506121009 | 51 | 238 | 4.3 | 8.7 | 0.00 | 0.00 | 0.00 | 64 | 814.2 |
| 20260506120529 | 51 | 241 | 8.7 | 13.9 | 0.00 | 0.00 | 0.00 | 62 | 813.9 |
| 20260506120422 | 52 | 205 | 5.2 | 10.4 | 0.00 | 0.00 | 0.00 | 62 | 814.1 |
| 20260506120311 | 52 | 240 | 5.2 | 8.7 | 0.00 | 0.00 | 0.00 | 62 | 814.1 |
| 20260506120052 | 52 | 234 | 4.3 | 10.4 | 0.00 | 0.00 | 0.00 | 61 | 813.9 |
| 20260506115941 | 53 | 236 | 3.5 | 7.0 | 0.00 | 0.00 | 0.00 | 60 | 813.9 |
| 20260506115829 | 54 | 251 | 8.7 | 16.5 | 0.00 | 0.00 | 0.00 | 58 | 813.9 |
| 20260506115719 | 54 | 233 | 5.2 | 8.7 | 0.00 | 0.00 | 0.00 | 58 | 814.1 |
| 20260506115612 | 55 | 230 | 5.2 | 11.3 | 0.00 | 0.00 | 0.00 | 57 | 814.1 |
| 20260506115459 | 55 | 227 | 7.0 | 13.0 | 0.00 | 0.00 | 0.00 | 57 | 813.8 |
| 20260506115349 | 55 | 247 | 6.1 | 13.0 | 0.00 | 0.00 | 0.00 | 58 | 813.8 |
| 20260506115241 | 54 | 251 | 5.2 | 10.4 | 0.00 | 0.00 | 0.00 | 59 | 814.1 |
| 20260506115134 | 54 | 239 | 7.0 | 13.0 | 0.00 | 0.00 | 0.00 | 60 | 813.9 |
| 20260506115019 | 53 | 238 | 8.7 | 13.0 | 0.00 | 0.00 | 0.00 | 60 | 814.1 |
| 20260506114649 | 53 | 240 | 7.0 | 13.9 | 0.00 | 0.00 | 0.00 | 60 | 814.1 |
| 20260506114539 | 53 | 245 | 4.3 | 8.7 | 0.00 | 0.00 | 0.00 | 61 | 813.9 |
| 20260506114429 | 53 | 251 | 6.1 | 13.0 | 0.00 | 0.00 | 0.00 | 60 | 813.9 |
| 20260506114319 | 53 | 258 | 8.7 | 13.9 | 0.00 | 0.00 | 0.00 | 63 | 814.1 |
| 20260506114209 | 52 | 252 | 7.8 | 17.4 | 0.00 | 0.00 | 0.00 | 64 | 814.1 |
| 20260506113732 | 51 | 228 | 7.0 | 12.2 | 0.00 | 0.00 | 0.00 | 63 | 814.1 |
| 20260506113359 | 52 | 239 | 7.8 | 13.0 | 0.00 | 0.00 | 0.00 | 62 | 814.1 |
| 20260506113249 | 53 | 253 | 8.7 | 13.9 | 0.00 | 0.00 | 0.00 | 60 | 814.1 |
| 20260506113029 | 54 | 270 | 7.0 | 13.9 | 0.00 | 0.00 | 0.00 | 62 | 814.2 |
| 20260506112919 | 54 | 228 | 3.5 | 9.6 | 0.00 | 0.00 | 0.00 | 59 | 814.2 |
| 20260506112549 | 55 | 217 | 6.1 | 8.7 | 0.00 | 0.00 | 0.00 | 59 | 814.2 |
| 20260506112439 | 55 | 243 | 7.0 | 13.0 | 0.00 | 0.00 | 0.00 | 59 | 814.2 |
| 20260506112219 | 55 | 272 | 7.0 | 11.3 | 0.00 | 0.00 | 0.00 | 61 | 814.2 |
| 20260506112109 | 54 | 249 | 5.2 | 10.4 | 0.00 | 0.00 | 0.00 | 62 | 814.2 |
| 20260506111959 | 54 | 267 | 4.3 | 12.2 | 0.00 | 0.00 | 0.00 | 62 | 814.2 |
| 20260506111849 | 54 | 290 | 3.5 | 8.7 | 0.00 | 0.00 | 0.00 | 60 | 814.2 |
| 20260506111739 | 54 | 273 | 6.1 | 10.4 | 0.00 | 0.00 | 0.00 | 62 | 814.2 |
| 20260506111629 | 55 | 247 | 7.0 | 12.2 | 0.00 | 0.00 | 0.00 | 61 | 814.2 |
| 20260506111519 | 55 | 261 | 7.0 | 13.9 | 0.00 | 0.00 | 0.00 | 62 | 814.2 |
| 20260506111409 | 55 | 236 | 6.1 | 12.2 | 0.00 | 0.00 | 0.00 | 59 | 814.2 |
| 20260506111259 | 55 | 243 | 4.3 | 9.6 | 0.00 | 0.00 | 0.00 | 61 | 814.2 |
| 20260506111149 | 55 | 259 | 6.1 | 8.7 | 0.00 | 0.00 | 0.00 | 60 | 814.2 |
| 20260506111039 | 55 | 230 | 4.3 | 11.3 | 0.00 | 0.00 | 0.00 | 61 | 814.2 |
| 20260506110929 | 55 | 233 | 4.3 | 10.4 | 0.00 | 0.00 | 0.00 | 63 | 814.2 |
| 20260506110819 | 55 | 260 | 6.1 | 12.2 | 0.00 | 0.00 | 0.00 | 62 | 814.2 |
| 20260506110709 | 55 | 276 | 7.0 | 10.4 | 0.00 | 0.00 | 0.00 | 59 | 814.2 |
| 20260506110559 | 55 | 266 | 7.0 | 11.3 | 0.00 | 0.00 | 0.00 | 62 | 814.2 |
| 20260506110449 | 55 | 262 | 3.5 | 7.0 | 0.00 | 0.00 | 0.00 | 63 | 814.2 |
| 20260506110339 | 55 | 239 | 6.1 | 11.3 | 0.00 | 0.00 | 0.00 | 62 | 814.2 |
| 20260506110229 | 55 | 256 | 5.2 | 13.0 | 0.00 | 0.00 | 0.00 | 63 | 814.2 |
| 20260506110016 | 55 | 241 | 6.1 | 13.9 | 0.00 | 0.00 | 0.00 | 62 | 814.2 |
| 20260506105858 | 55 | 279 | 6.1 | 13.9 | 0.00 | 0.00 | 0.00 | 62 | 814.2 |
| 20260506105642 | 55 | 254 | 7.0 | 13.0 | 0.00 | 0.00 | 0.00 | 62 | 814.2 |
| 20260506105529 | 55 | 264 | 3.5 | 5.2 | 0.00 | 0.00 | 0.00 | 64 | 814.2 |
| 20260506105418 | 54 | 316 | 4.3 | 8.7 | 0.00 | 0.00 | 0.00 | 65 | 814.2 |
| 20260506105309 | 54 | 62 | 3.5 | 13.0 | 0.00 | 0.00 | 0.00 | 65 | 814.2 |
| 20260506104939 | 54 | 216 | 7.0 | 11.3 | 0.00 | 0.00 | 0.00 | 63 | 814.2 |
| 20260506104719 | 54 | 288 | 4.3 | 7.8 | 0.00 | 0.00 | 0.00 | 66 | 814.2 |
| 20260506104459 | 54 | 253 | 4.3 | 9.6 | 0.00 | 0.00 | 0.00 | 66 | 814.2 |
| 20260506104238 | 54 | 286 | 5.2 | 11.3 | 0.00 | 0.00 | 0.00 | 65 | 814.2 |
| 20260506104018 | 53 | 276 | 3.5 | 8.7 | 0.00 | 0.00 | 0.00 | 72 | 814.2 |
| 20260506103759 | 52 | 320 | 2.6 | 7.0 | 0.00 | 0.00 | 0.00 | 69 | 814.3 |
| 20260506103539 | 51 | 220 | 1.7 | 3.5 | 0.00 | 0.00 | 0.00 | 71 | 814.3 |
| 20260506103428 | 51 | 206 | 2.6 | 6.1 | 0.00 | 0.00 | 0.00 | 71 | 814.2 |
| 20260506103318 | 52 | 230 | 2.6 | 6.1 | 0.00 | 0.00 | 0.00 | 68 | 814.2 |
| 20260506103209 | 52 | 239 | 5.2 | 9.6 | 0.00 | 0.00 | 0.00 | 70 | 814.3 |
| 20260506103102 | 52 | 232 | 3.5 | 7.0 | 0.00 | 0.00 | 0.00 | 70 | 814.3 |
| 20260506102839 | 51 | 277 | 3.5 | 7.0 | 0.00 | 0.00 | 0.00 | 72 | 814.3 |
| 20260506102729 | 51 | 90 | 1.7 | 5.2 | 0.00 | 0.00 | 0.00 | 72 | 814.3 |
| 20260506102618 | 51 | 181 | 0.9 | 3.5 | 0.00 | 0.00 | 0.00 | 72 | 814.3 |
| 20260506102358 | 51 | 272 | 1.7 | 4.3 | 0.00 | 0.00 | 0.00 | 72 | 814.3 |
| 20260506102248 | 51 | 283 | 1.7 | 3.5 | 0.00 | 0.00 | 0.00 | 72 | 814.3 |
| 20260506102028 | 51 | 195 | 1.7 | 3.5 | 0.00 | 0.00 | 0.00 | 72 | 814.3 |
| 20260506101918 | 51 | 195 | 2.6 | 5.2 | 0.00 | 0.00 | 0.00 | 72 | 814.2 |
| 20260506101808 | 51 | 222 | 3.5 | 6.1 | 0.00 | 0.00 | 0.00 | 72 | 814.3 |
| 20260506101658 | 51 | 220 | 3.5 | 5.2 | 0.00 | 0.00 | 0.00 | 72 | 814.3 |
| 20260506101549 | 51 | 258 | 4.3 | 7.0 | 0.00 | 0.00 | 0.00 | 71 | 814.3 |
| 20260506101438 | 51 | 258 | 3.5 | 6.1 | 0.00 | 0.00 | 0.00 | 71 | 814.3 |
| 20260506101329 | 51 | 287 | 2.6 | 5.2 | 0.00 | 0.00 | 0.00 | 72 | 814.3 |
| 20260506101219 | 51 | 138 | 0.9 | 3.5 | 0.00 | 0.00 | 0.00 | 72 | 814.3 |
| 20260506101109 | 51 | 223 | 1.7 | 3.5 | 0.00 | 0.00 | 0.00 | 72 | 814.3 |
| 20260506100958 | 51 | 215 | 1.7 | 4.3 | 0.00 | 0.00 | 0.00 | 71 | 814.3 |
| 20260506100848 | 51 | 197 | 1.7 | 1.7 | 0.00 | 0.00 | 0.00 | 71 | 814.2 |
| 20260506100628 | 51 | 212 | 1.7 | 3.5 | 0.00 | 0.00 | 0.00 | 68 | 814.3 |
| 20260506100519 | 52 | 191 | 2.6 | 3.5 | 0.00 | 0.00 | 0.00 | 69 | 814.3 |
| 20260506100408 | 52 | 204 | 2.6 | 5.2 | 0.00 | 0.00 | 0.00 | 67 | 814.3 |
| 20260506100258 | 52 | 212 | 3.5 | 5.2 | 0.00 | 0.00 | 0.00 | 69 | 814.3 |
| 20260506100150 | 52 | 245 | 3.5 | 5.2 | 0.00 | 0.00 | 0.00 | 70 | 814.3 |
| 20260506095930 | 52 | 267 | 3.5 | 6.1 | 0.00 | 0.00 | 0.00 | 72 | 814.3 |
| 20260506095820 | 51 | 271 | 3.5 | 7.0 | 0.00 | 0.00 | 0.00 | 72 | 814.3 |
| 20260506095708 | 51 | 214 | 4.3 | 7.0 | 0.00 | 0.00 | 0.00 | 72 | 814.3 |
| 20260506095455 | 51 | 215 | 4.3 | 8.7 | 0.00 | 0.00 | 0.00 | 69 | 814.3 |
| 20260506095235 | 51 | 282 | 2.6 | 7.8 | 0.00 | 0.00 | 0.00 | 70 | 814.3 |
| 20260506095119 | 52 | 222 | 2.6 | 6.1 | 0.00 | 0.00 | 0.00 | 69 | 814.3 |
| 20260506095009 | 52 | 241 | 5.2 | 10.4 | 0.00 | 0.00 | 0.00 | 69 | 814.3 |
| 20260506094859 | 53 | 247 | 7.0 | 11.3 | 0.00 | 0.00 | 0.00 | 67 | 814.3 |
| 20260506094749 | 53 | 248 | 6.1 | 9.6 | 0.00 | 0.00 | 0.00 | 68 | 814.3 |
| 20260506094528 | 54 | 216 | 5.2 | 7.8 | 0.00 | 0.00 | 0.00 | 64 | 814.3 |
| 20260506094419 | 55 | 244 | 4.3 | 8.7 | 0.00 | 0.00 | 0.00 | 65 | 814.3 |
| 20260506094308 | 55 | 245 | 3.5 | 7.0 | 0.00 | 0.00 | 0.00 | 65 | 814.3 |
| 20260506094159 | 55 | 270 | 3.5 | 9.6 | 0.00 | 0.00 | 0.00 | 64 | 814.3 |
| 20260506094048 | 55 | 301 | 4.3 | 8.7 | 0.00 | 0.00 | 0.00 | 65 | 814.3 |
| 20260506093938 | 54 | 256 | 3.5 | 6.1 | 0.00 | 0.00 | 0.00 | 68 | 814.3 |
| 20260506093828 | 53 | 298 | 3.5 | 7.8 | 0.00 | 0.00 | 0.00 | 68 | 814.3 |
| 20260506093719 | 53 | 241 | 3.5 | 6.1 | 0.00 | 0.00 | 0.00 | 66 | 814.3 |
| 20260506093609 | 53 | 240 | 1.7 | 5.2 | 0.00 | 0.00 | 0.00 | 63 | 814.3 |
| 20260506093348 | 53 | 245 | 2.6 | 6.1 | 0.00 | 0.00 | 0.00 | 66 | 814.3 |
| 20260506093239 | 53 | 305 | 2.6 | 7.0 | 0.00 | 0.00 | 0.00 | 68 | 814.3 |
| 20260506093128 | 53 | 233 | 2.6 | 11.3 | 0.00 | 0.00 | 0.00 | 66 | 814.3 |
| 20260506093019 | 52 | 174 | 1.7 | 5.2 | 0.00 | 0.00 | 0.00 | 66 | 814.3 |
| 20260506092759 | 51 | 211 | 2.6 | 6.1 | 0.00 | 0.00 | 0.00 | 74 | 814.3 |
| 20260506092648 | 51 | 203 | 2.6 | 5.2 | 0.00 | 0.00 | 0.00 | 74 | 814.5 |
| 20260506092538 | 50 | 229 | 3.5 | 6.1 | 0.00 | 0.00 | 0.00 | 74 | 814.3 |
| 20260506092429 | 49 | 210 | 3.5 | 5.2 | 0.00 | 0.00 | 0.00 | 77 | 814.3 |
| 20260506092319 | 49 | 205 | 3.5 | 5.2 | 0.00 | 0.00 | 0.00 | 76 | 814.3 |
| 20260506092208 | 48 | 186 | 4.3 | 5.2 | 0.00 | 0.00 | 0.00 | 78 | 814.3 |
| 20260506092059 | 48 | 173 | 4.3 | 6.1 | 0.00 | 0.00 | 0.00 | 78 | 814.3 |
| 20260506091838 | 48 | 177 | 4.3 | 4.3 | 0.00 | 0.00 | 0.00 | 76 | 814.5 |
| 20260506091728 | 49 | 185 | 4.3 | 5.2 | 0.00 | 0.00 | 0.00 | 77 | 814.3 |
| 20260506091618 | 49 | 198 | 2.6 | 4.3 | 0.00 | 0.00 | 0.00 | 76 | 814.3 |
| 20260506091508 | 49 | 193 | 2.6 | 4.3 | 0.00 | 0.00 | 0.00 | 76 | 814.3 |
| 20260506091358 | 49 | 214 | 3.5 | 6.1 | 0.00 | 0.00 | 0.00 | 76 | 814.3 |
| 20260506091248 | 49 | 225 | 1.7 | 7.0 | 0.00 | 0.00 | 0.00 | 76 | 814.3 |
| 20260506091029 | 49 | 236 | 4.3 | 6.1 | 0.00 | 0.00 | 0.00 | 75 | 814.3 |
| 20260506090918 | 49 | 243 | 4.3 | 6.1 | 0.00 | 0.00 | 0.00 | 76 | 814.3 |
| 20260506090808 | 49 | 236 | 3.5 | 5.2 | 0.00 | 0.00 | 0.00 | 75 | 814.3 |
| 20260506090658 | 49 | 248 | 3.5 | 5.2 | 0.00 | 0.00 | 0.00 | 75 | 814.3 |
| 20260506090438 | 49 | 267 | 2.6 | 3.5 | 0.00 | 0.00 | 0.00 | 75 | 814.3 |
| 20260506090329 | 49 | 245 | 0.9 | 7.8 | 0.00 | 0.00 | 0.00 | 75 | 814.3 |
| 20260506090108 | 49 | 228 | 1.7 | 3.5 | 0.00 | 0.00 | 0.00 | 75 | 814.2 |
| 20260506085959 | 49 | 225 | 3.5 | 4.3 | 0.00 | 0.00 | 0.00 | 75 | 814.3 |
| 20260506085739 | 49 | 221 | 3.5 | 4.3 | 0.00 | 0.00 | 0.00 | 74 | 814.2 |
| 20260506085628 | 49 | 235 | 3.5 | 5.2 | 0.00 | 0.00 | 0.00 | 74 | 814.2 |
| 20260506085518 | 49 | 224 | 4.3 | 7.0 | 0.00 | 0.00 | 0.00 | 73 | 814.2 |
| 20260506085408 | 50 | 212 | 5.2 | 7.0 | 0.00 | 0.00 | 0.00 | 74 | 814.2 |
| 20260506085258 | 50 | 219 | 4.3 | 7.0 | 0.00 | 0.00 | 0.00 | 74 | 814.3 |
| 20260506085148 | 50 | 248 | 2.6 | 4.3 | 0.00 | 0.00 | 0.00 | 72 | 814.3 |
| 20260506085038 | 50 | 235 | 3.5 | 4.3 | 0.00 | 0.00 | 0.00 | 72 | 814.3 |
| 20260506084928 | 50 | 259 | 2.6 | 5.2 | 0.00 | 0.00 | 0.00 | 72 | 814.3 |
| 20260506084818 | 50 | 256 | 3.5 | 4.3 | 0.00 | 0.00 | 0.00 | 71 | 814.3 |
| 20260506084708 | 51 | 266 | 3.5 | 5.2 | 0.00 | 0.00 | 0.00 | 72 | 814.3 |
| 20260506084559 | 51 | 268 | 2.6 | 4.3 | 0.00 | 0.00 | 0.00 | 70 | 814.3 |
| 20260506084339 | 51 | 280 | 3.5 | 5.2 | 0.00 | 0.00 | 0.00 | 70 | 814.3 |
| 20260506084119 | 51 | 186 | 1.7 | 3.5 | 0.00 | 0.00 | 0.00 | 71 | 814.3 |
| 20260506084008 | 51 | 250 | 1.7 | 3.5 | 0.00 | 0.00 | 0.00 | 69 | 814.3 |
| 20260506083858 | 51 | 209 | 1.7 | 3.5 | 0.00 | 0.00 | 0.00 | 69 | 814.3 |
| 20260506083748 | 51 | 281 | 3.5 | 5.2 | 0.00 | 0.00 | 0.00 | 70 | 814.3 |
| 20260506083638 | 51 | 239 | 2.6 | 5.2 | 0.00 | 0.00 | 0.00 | 68 | 814.2 |
| 20260506083528 | 52 | 273 | 2.6 | 5.2 | 0.00 | 0.00 | 0.00 | 68 | 814.3 |
| 20260506083308 | 52 | 307 | 0.9 | 2.6 | 0.00 | 0.00 | 0.00 | 68 | 814.2 |
| 20260506083158 | 52 | 207 | 2.6 | 4.3 | 0.00 | 0.00 | 0.00 | 68 | 814.2 |
| 20260506083048 | 52 | 280 | 1.7 | 3.5 | 0.00 | 0.00 | 0.00 | 69 | 814.2 |
| 20260506082938 | 52 | 236 | 1.7 | 3.5 | 0.00 | 0.00 | 0.00 | 70 | 814.2 |
| 20260506082718 | 51 | 220 | 2.6 | 6.1 | 0.00 | 0.00 | 0.00 | 72 | 814.2 |
| 20260506082609 | 51 | 333 | 0.9 | 2.6 | 0.00 | 0.00 | 0.00 | 69 | 814.2 |
| 20260506082458 | 51 | 271 | 1.7 | 3.5 | 0.00 | 0.00 | 0.00 | 70 | 814.2 |
| 20260506082348 | 51 | 340 | 0.9 | 1.7 | 0.00 | 0.00 | 0.00 | 71 | 814.2 |
| 20260506082238 | 51 | 330 | 0.9 | 2.6 | 0.00 | 0.00 | 0.00 | 70 | 814.2 |
| 20260506082018 | 50 | 293 | 2.6 | 4.3 | 0.00 | 0.00 | 0.00 | 70 | 814.2 |
| 20260506081908 | 50 | 316 | 2.6 | 5.2 | 0.00 | 0.00 | 0.00 | 70 | 814.2 |
| 20260506081759 | 51 | 205 | 4.3 | 8.7 | 0.00 | 0.00 | 0.00 | 71 | 814.2 |
| 20260506081648 | 51 | 118 | 7.0 | 12.2 | 0.00 | 0.00 | 0.00 | 66 | 814.2 |
| 20260506081538 | 51 | 90 | 4.3 | 8.7 | 0.00 | 0.00 | 0.00 | 62 | 814.2 |
| 20260506081428 | 52 | 60 | 3.5 | 5.2 | 0.00 | 0.00 | 0.00 | 64 | 814.2 |
| 20260506081318 | 52 | 167 | 3.5 | 7.0 | 0.00 | 0.00 | 0.00 | 66 | 814.2 |
| 20260506081208 | 52 | 148 | 1.7 | 4.3 | 0.00 | 0.00 | 0.00 | 60 | 814.2 |
| 20260506080948 | 52 | 100 | 0.9 | 3.5 | 0.00 | 0.00 | 0.00 | 64 | 814.2 |
| 20260506080838 | 51 | 129 | 3.5 | 6.1 | 0.00 | 0.00 | 0.00 | 66 | 814.2 |
| 20260506080729 | 51 | 117 | 5.2 | 7.0 | 0.00 | 0.00 | 0.00 | 64 | 814.2 |
| 20260506080618 | 50 | 120 | 5.2 | 8.7 | 0.00 | 0.00 | 0.00 | 69 | 814.1 |
| 20260506080508 | 50 | 94 | 6.1 | 11.3 | 0.00 | 0.00 | 0.00 | 66 | 814.1 |
| 20260506080358 | 50 | 106 | 2.6 | 5.2 | 0.00 | 0.00 | 0.00 | 66 | 814.2 |
| 20260506080248 | 50 | 147 | 3.5 | 4.3 | 0.00 | 0.00 | 0.00 | 70 | 814.2 |
| 20260506080138 | 50 | 222 | 4.3 | 6.1 | 0.00 | 0.00 | 0.00 | 70 | 814.2 |
| 20260506073448 | 50 | 0 | 5.2 | 7.0 | 0.00 | 0.00 | 0.00 | 61 | 814.2 |
| 20260506073338 | 51 | 0 | 3.5 | 4.3 | 0.00 | 0.00 | 0.00 | 61 | 814.2 |
| 20260506073228 | 52 | 332 | 4.3 | 7.0 | 0.00 | 0.00 | 0.00 | 58 | 814.2 |
| 20260506073118 | 52 | 350 | 2.6 | 6.1 | 0.00 | 0.00 | 0.00 | 58 | 813.9 |
| 20260506072858 | 52 | 99 | 5.2 | 9.6 | 0.00 | 0.00 | 0.00 | 57 | 814.1 |
| 20260506072638 | 52 | 101 | 6.1 | 9.6 | 0.00 | 0.00 | 0.00 | 58 | 814.1 |
| 20260506072528 | 53 | 70 | 7.8 | 11.3 | 0.00 | 0.00 | 0.00 | 55 | 813.9 |
| 20260506072418 | 53 | 95 | 3.5 | 7.0 | 0.00 | 0.00 | 0.00 | 57 | 814.1 |
| 20260506072308 | 52 | 173 | 1.7 | 5.2 | 0.00 | 0.00 | 0.00 | 58 | 814.1 |
| 20260506072158 | 52 | 0 | 1.7 | 3.5 | 0.00 | 0.00 | 0.00 | 61 | 813.9 |
| 20260506071938 | 51 | 46 | 3.5 | 7.0 | 0.00 | 0.00 | 0.00 | 60 | 814.1 |
| 20260506071828 | 51 | 296 | 2.6 | 4.3 | 0.00 | 0.00 | 0.00 | 56 | 814.1 |
| 20260506071718 | 51 | 309 | 1.7 | 3.5 | 0.00 | 0.00 | 0.00 | 57 | 813.9 |
| 20260506071608 | 51 | 45 | 0.9 | 2.6 | 0.00 | 0.00 | 0.00 | 56 | 813.9 |
| 20260506071348 | 51 | 3 | 4.3 | 7.8 | 0.00 | 0.00 | 0.00 | 55 | 813.9 |
| 20260506071238 | 52 | 347 | 4.3 | 7.0 | 0.00 | 0.00 | 0.00 | 59 | 813.9 |
| 20260506071128 | 52 | 309 | 2.6 | 4.3 | 0.00 | 0.00 | 0.00 | 58 | 813.9 |
| 20260506071018 | 52 | 205 | 1.7 | 4.3 | 0.00 | 0.00 | 0.00 | 55 | 813.9 |
| 20260506070758 | 52 | 138 | 3.5 | 9.6 | 0.00 | 0.00 | 0.00 | 58 | 813.9 |
| 20260506070648 | 52 | 284 | 1.7 | 5.2 | 0.00 | 0.00 | 0.00 | 57 | 813.9 |
| 20260506070538 | 51 | 28 | 2.6 | 7.8 | 0.00 | 0.00 | 0.00 | 57 | 813.9 |
| 20260506070428 | 51 | 356 | 4.3 | 7.0 | 0.00 | 0.00 | 0.00 | 56 | 813.8 |
| 20260506070208 | 51 | 22 | 1.7 | 3.5 | 0.00 | 0.00 | 0.00 | 55 | 813.8 |
| 20260506062338 | 50 | 31 | 3.5 | 5.2 | 0.00 | 0.00 | 0.00 | 56 | 813.8 |
| 20260506062228 | 50 | 69 | 2.6 | 5.2 | 0.00 | 0.00 | 0.00 | 55 | 813.8 |
| 20260506062118 | 50 | 33 | 4.3 | 9.6 | 0.00 | 0.00 | 0.00 | 54 | 813.8 |
| 20260506062008 | 51 | 67 | 6.1 | 8.7 | 0.00 | 0.00 | 0.00 | 55 | 813.8 |
| 20260506061859 | 50 | 65 | 5.2 | 7.0 | 0.00 | 0.00 | 0.00 | 57 | 813.8 |
| 20260506061748 | 50 | 104 | 3.5 | 7.0 | 0.00 | 0.00 | 0.00 | 57 | 813.8 |
| 20260506061638 | 50 | 64 | 1.7 | 3.5 | 0.00 | 0.00 | 0.00 | 57 | 813.8 |
| 20260506061528 | 50 | 79 | 2.6 | 4.3 | 0.00 | 0.00 | 0.00 | 56 | 813.8 |
| 20260506061418 | 50 | 67 | 3.5 | 6.1 | 0.00 | 0.00 | 0.00 | 56 | 813.8 |
| 20260506061308 | 49 | 80 | 3.5 | 6.1 | 0.00 | 0.00 | 0.00 | 57 | 813.8 |
| 20260506061158 | 49 | 75 | 2.6 | 5.2 | 0.00 | 0.00 | 0.00 | 58 | 813.8 |
| 20260506061048 | 49 | 60 | 3.5 | 6.1 | 0.00 | 0.00 | 0.00 | 59 | 813.8 |
| 20260506060938 | 49 | 73 | 5.2 | 7.8 | 0.00 | 0.00 | 0.00 | 57 | 813.8 |
| 20260506060828 | 49 | 35 | 7.0 | 9.6 | 0.00 | 0.00 | 0.00 | 58 | 813.8 |
| 20260506060718 | 49 | 23 | 6.1 | 10.4 | 0.00 | 0.00 | 0.00 | 55 | 813.8 |
| 20260506060458 | 49 | 38 | 7.0 | 13.0 | 0.00 | 0.00 | 0.00 | 56 | 813.7 |
| 20260506060348 | 49 | 80 | 6.1 | 9.6 | 0.00 | 0.00 | 0.00 | 57 | 813.8 |
| 20260506060238 | 49 | 49 | 4.3 | 7.8 | 0.00 | 0.00 | 0.00 | 58 | 813.7 |
| 20260506060128 | 49 | 16 | 7.0 | 10.4 | 0.00 | 0.00 | 0.00 | 57 | 813.7 |
| 20260506051338 | 47 | 29 | 9.6 | 12.2 | 0.00 | 0.00 | 0.00 | 58 | 813.4 |
| 20260506051228 | 47 | 24 | 8.7 | 12.2 | 0.00 | 0.00 | 0.00 | 60 | 813.4 |
| 20260506051118 | 47 | 18 | 8.7 | 9.6 | 0.00 | 0.00 | 0.00 | 60 | 813.4 |
| 20260506050859 | 47 | 14 | 8.7 | 11.3 | 0.00 | 0.00 | 0.00 | 60 | 813.4 |
| 20260506050748 | 47 | 15 | 9.6 | 10.4 | 0.00 | 0.00 | 0.00 | 62 | 813.4 |
| 20260506050638 | 47 | 15 | 9.6 | 11.3 | 0.00 | 0.00 | 0.00 | 60 | 813.4 |
| 20260506050419 | 46 | 12 | 11.3 | 12.2 | 0.00 | 0.00 | 0.00 | 61 | 813.4 |
| 20260506050200 | 46 | 12 | 10.4 | 12.2 | 0.00 | 0.00 | 0.00 | 60 | 813.3 |
| 20260506045129 | 46 | 9 | 11.3 | 13.0 | 0.00 | 0.00 | 0.00 | 61 | 813.3 |
| 20260506045018 | 46 | 8 | 11.3 | 13.0 | 0.00 | 0.00 | 0.00 | 61 | 813.3 |
| 20260506044539 | 46 | 5 | 13.0 | 15.6 | 0.00 | 0.00 | 0.00 | 61 | 813.3 |
| 20260506044429 | 46 | 3 | 12.2 | 13.9 | 0.00 | 0.00 | 0.00 | 62 | 813.1 |
| 20260506044318 | 46 | 9 | 11.3 | 13.0 | 0.00 | 0.00 | 0.00 | 61 | 813.3 |
| 20260506044209 | 46 | 9 | 11.3 | 13.0 | 0.00 | 0.00 | 0.00 | 61 | 813.1 |
| 20260506041738 | 46 | 0 | 12.2 | 13.9 | 0.00 | 0.00 | 0.00 | 60 | 813.1 |
| 20260506041632 | 46 | 0 | 12.2 | 14.8 | 0.00 | 0.00 | 0.00 | 60 | 813.0 |
| 20260506041520 | 46 | 1 | 14.8 | 16.5 | 0.00 | 0.00 | 0.00 | 60 | 813.0 |
| 20260506041408 | 46 | 4 | 13.0 | 17.4 | 0.00 | 0.00 | 0.00 | 60 | 813.0 |
| 20260506041258 | 46 | 3 | 12.2 | 13.9 | 0.00 | 0.00 | 0.00 | 60 | 813.0 |
| 20260506041148 | 46 | 6 | 12.2 | 13.9 | 0.00 | 0.00 | 0.00 | 60 | 813.0 |
| 20260506041038 | 46 | 6 | 13.0 | 14.8 | 0.00 | 0.00 | 0.00 | 60 | 813.0 |
| 20260506040928 | 46 | 2 | 12.2 | 13.9 | 0.00 | 0.00 | 0.00 | 60 | 813.0 |
| 20260506040818 | 46 | 0 | 12.2 | 14.8 | 0.00 | 0.00 | 0.00 | 60 | 813.0 |
| 20260506040708 | 46 | 1 | 12.2 | 13.9 | 0.00 | 0.00 | 0.00 | 60 | 813.0 |
| 20260506040558 | 46 | 1 | 12.2 | 13.9 | 0.00 | 0.00 | 0.00 | 60 | 813.0 |
| 20260506040449 | 46 | 0 | 10.4 | 13.0 | 0.00 | 0.00 | 0.00 | 60 | 813.0 |
| 20260506040338 | 46 | 357 | 11.3 | 13.0 | 0.00 | 0.00 | 0.00 | 60 | 813.0 |
| 20260506040118 | 46 | 356 | 10.4 | 12.2 | 0.00 | 0.00 | 0.00 | 60 | 813.0 |
| 20260506040008 | 46 | 355 | 10.4 | 12.2 | 0.00 | 0.00 | 0.00 | 60 | 813.0 |
| 20260506035748 | 46 | 358 | 11.3 | 13.0 | 0.00 | 0.00 | 0.00 | 59 | 813.0 |
| 20260506035638 | 46 | 357 | 11.3 | 13.0 | 0.00 | 0.00 | 0.00 | 59 | 813.0 |
| 20260506035418 | 46 | 353 | 11.3 | 13.9 | 0.00 | 0.00 | 0.00 | 59 | 813.0 |
| 20260506035308 | 46 | 354 | 10.4 | 13.0 | 0.00 | 0.00 | 0.00 | 59 | 813.0 |
| 20260506035158 | 46 | 351 | 11.3 | 13.0 | 0.00 | 0.00 | 0.00 | 59 | 813.0 |
| 20260506035048 | 46 | 352 | 10.4 | 12.2 | 0.00 | 0.00 | 0.00 | 59 | 813.0 |
| 20260506034938 | 46 | 354 | 10.4 | 12.2 | 0.00 | 0.00 | 0.00 | 59 | 813.0 |
| 20260506034828 | 46 | 353 | 10.4 | 11.3 | 0.00 | 0.00 | 0.00 | 59 | 813.0 |
| 20260506034718 | 46 | 353 | 10.4 | 13.0 | 0.00 | 0.00 | 0.00 | 59 | 813.0 |
| 20260506034608 | 46 | 351 | 11.3 | 13.0 | 0.00 | 0.00 | 0.00 | 59 | 813.0 |
| 20260506034348 | 46 | 356 | 10.4 | 12.2 | 0.00 | 0.00 | 0.00 | 59 | 813.0 |
| 20260506034238 | 46 | 354 | 10.4 | 12.2 | 0.00 | 0.00 | 0.00 | 59 | 813.0 |
| 20260506034018 | 46 | 356 | 11.3 | 13.0 | 0.00 | 0.00 | 0.00 | 59 | 813.0 |
| 20260506033908 | 46 | 356 | 12.2 | 13.9 | 0.00 | 0.00 | 0.00 | 59 | 812.9 |
| 20260506033758 | 46 | 357 | 10.4 | 13.0 | 0.00 | 0.00 | 0.00 | 59 | 813.0 |
| 20260506033648 | 46 | 354 | 13.0 | 13.9 | 0.00 | 0.00 | 0.00 | 59 | 812.9 |
| 20260506033538 | 46 | 358 | 11.3 | 13.9 | 0.00 | 0.00 | 0.00 | 60 | 813.0 |
| 20260506033428 | 46 | 358 | 13.0 | 14.8 | 0.00 | 0.00 | 0.00 | 59 | 813.0 |
| 20260506033318 | 46 | 357 | 13.0 | 14.8 | 0.00 | 0.00 | 0.00 | 59 | 813.0 |
| 20260506033208 | 46 | 0 | 13.0 | 14.8 | 0.00 | 0.00 | 0.00 | 59 | 813.0 |
| 20260506033058 | 46 | 356 | 13.0 | 15.6 | 0.00 | 0.00 | 0.00 | 59 | 812.9 |
| 20260506032728 | 46 | 1 | 12.2 | 13.9 | 0.00 | 0.00 | 0.00 | 60 | 813.0 |
| 20260506032618 | 46 | 3 | 12.2 | 13.0 | 0.00 | 0.00 | 0.00 | 60 | 813.0 |
| 20260506032508 | 46 | 2 | 12.2 | 13.9 | 0.00 | 0.00 | 0.00 | 60 | 812.9 |
| 20260506032358 | 46 | 0 | 10.4 | 12.2 | 0.00 | 0.00 | 0.00 | 60 | 812.9 |
| 20260506032248 | 46 | 356 | 11.3 | 13.0 | 0.00 | 0.00 | 0.00 | 60 | 813.0 |
| 20260506032138 | 46 | 356 | 11.3 | 13.9 | 0.00 | 0.00 | 0.00 | 60 | 812.9 |
| 20260506032028 | 46 | 0 | 10.4 | 13.0 | 0.00 | 0.00 | 0.00 | 60 | 812.9 |
| 20260506031808 | 46 | 358 | 10.4 | 11.3 | 0.00 | 0.00 | 0.00 | 59 | 812.9 |
| 20260506031658 | 46 | 355 | 10.4 | 13.0 | 0.00 | 0.00 | 0.00 | 59 | 812.9 |
| 20260506031438 | 46 | 357 | 10.4 | 13.0 | 0.00 | 0.00 | 0.00 | 59 | 812.9 |
| 20260506031328 | 46 | 357 | 11.3 | 13.0 | 0.00 | 0.00 | 0.00 | 60 | 812.9 |
| 20260506031218 | 46 | 0 | 11.3 | 13.0 | 0.00 | 0.00 | 0.00 | 60 | 812.7 |
| 20260506030848 | 46 | 1 | 10.4 | 12.2 | 0.00 | 0.00 | 0.00 | 60 | 812.9 |
| 20260506030738 | 46 | 1 | 10.4 | 11.3 | 0.00 | 0.00 | 0.00 | 60 | 812.9 |
| 20260506030628 | 46 | 0 | 11.3 | 13.0 | 0.00 | 0.00 | 0.00 | 60 | 812.9 |
| 20260506030518 | 46 | 356 | 10.4 | 12.2 | 0.00 | 0.00 | 0.00 | 60 | 812.9 |
| 20260506030408 | 46 | 0 | 10.4 | 12.2 | 0.00 | 0.00 | 0.00 | 60 | 812.9 |
| 20260506030148 | 46 | 1 | 10.4 | 13.0 | 0.00 | 0.00 | 0.00 | 62 | 812.9 |
| 20260506025818 | 47 | 1 | 10.4 | 11.3 | 0.00 | 0.00 | 0.00 | 61 | 812.9 |
| 20260506025708 | 47 | 358 | 11.3 | 13.0 | 0.00 | 0.00 | 0.00 | 61 | 812.9 |
| 20260506025558 | 47 | 0 | 11.3 | 13.9 | 0.00 | 0.00 | 0.00 | 61 | 812.9 |
| 20260506025448 | 47 | 6 | 10.4 | 13.0 | 0.00 | 0.00 | 0.00 | 60 | 812.9 |
| 20260506025338 | 47 | 0 | 10.4 | 12.2 | 0.00 | 0.00 | 0.00 | 61 | 812.9 |
| 20260506025228 | 47 | 0 | 11.3 | 13.0 | 0.00 | 0.00 | 0.00 | 61 | 812.9 |
| 20260506025118 | 47 | 4 | 11.3 | 13.0 | 0.00 | 0.00 | 0.00 | 62 | 812.9 |
| 20260506025008 | 47 | 8 | 11.3 | 13.0 | 0.00 | 0.00 | 0.00 | 62 | 812.9 |
| 20260506024858 | 47 | 11 | 10.4 | 11.3 | 0.00 | 0.00 | 0.00 | 62 | 812.9 |
| 20260506024748 | 47 | 12 | 10.4 | 11.3 | 0.00 | 0.00 | 0.00 | 61 | 812.9 |
| 20260506024638 | 47 | 10 | 10.4 | 11.3 | 0.00 | 0.00 | 0.00 | 61 | 813.0 |
| 20260506024528 | 47 | 7 | 9.6 | 10.4 | 0.00 | 0.00 | 0.00 | 62 | 813.0 |
| 20260506024418 | 47 | 13 | 9.6 | 10.4 | 0.00 | 0.00 | 0.00 | 61 | 812.9 |
| 20260506024308 | 47 | 7 | 8.7 | 9.6 | 0.00 | 0.00 | 0.00 | 60 | 812.9 |
| 20260506024158 | 47 | 8 | 10.4 | 10.4 | 0.00 | 0.00 | 0.00 | 62 | 812.9 |
| 20260506024048 | 47 | 12 | 8.7 | 10.4 | 0.00 | 0.00 | 0.00 | 61 | 812.9 |
| 20260506023828 | 47 | 11 | 9.6 | 10.4 | 0.00 | 0.00 | 0.00 | 61 | 812.9 |
| 20260506023718 | 47 | 8 | 10.4 | 10.4 | 0.00 | 0.00 | 0.00 | 62 | 812.9 |
| 20260506023608 | 47 | 11 | 9.6 | 10.4 | 0.00 | 0.00 | 0.00 | 62 | 812.9 |
| 20260506023458 | 47 | 11 | 10.4 | 10.4 | 0.00 | 0.00 | 0.00 | 62 | 812.9 |
| 20260506023238 | 47 | 11 | 10.4 | 11.3 | 0.00 | 0.00 | 0.00 | 61 | 812.9 |
| 20260506023128 | 47 | 12 | 10.4 | 11.3 | 0.00 | 0.00 | 0.00 | 61 | 812.9 |
| 20260506023018 | 47 | 9 | 11.3 | 12.2 | 0.00 | 0.00 | 0.00 | 60 | 812.9 |
| 20260506022758 | 47 | 6 | 10.4 | 12.2 | 0.00 | 0.00 | 0.00 | 60 | 812.7 |
| 20260506022648 | 47 | 4 | 10.4 | 12.2 | 0.00 | 0.00 | 0.00 | 59 | 812.9 |
| 20260506022538 | 47 | 1 | 10.4 | 10.4 | 0.00 | 0.00 | 0.00 | 60 | 812.9 |
| 20260506022428 | 47 | 1 | 10.4 | 12.2 | 0.00 | 0.00 | 0.00 | 59 | 812.7 |
| 20260506022318 | 47 | 1 | 9.6 | 11.3 | 0.00 | 0.00 | 0.00 | 59 | 812.9 |
| 20260506022208 | 47 | 0 | 10.4 | 11.3 | 0.00 | 0.00 | 0.00 | 59 | 812.9 |
| 20260506022102 | 47 | 4 | 9.6 | 10.4 | 0.00 | 0.00 | 0.00 | 59 | 812.9 |
| 20260506021948 | 47 | 4 | 10.4 | 11.3 | 0.00 | 0.00 | 0.00 | 59 | 812.9 |
| 20260506021729 | 47 | 1 | 10.4 | 11.3 | 0.00 | 0.00 | 0.00 | 59 | 812.9 |
| 20260506021618 | 47 | 2 | 9.6 | 11.3 | 0.00 | 0.00 | 0.00 | 59 | 812.9 |
| 20260506021508 | 47 | 2 | 9.6 | 10.4 | 0.00 | 0.00 | 0.00 | 58 | 812.9 |
| 20260506021358 | 47 | 2 | 9.6 | 10.4 | 0.00 | 0.00 | 0.00 | 59 | 812.9 |
| 20260506021248 | 47 | 1 | 9.6 | 10.4 | 0.00 | 0.00 | 0.00 | 58 | 812.9 |
| 20260506021138 | 47 | 0 | 9.6 | 10.4 | 0.00 | 0.00 | 0.00 | 58 | 812.9 |
| 20260506021028 | 47 | 357 | 9.6 | 10.4 | 0.00 | 0.00 | 0.00 | 58 | 812.7 |
| 20260506020919 | 47 | 356 | 9.6 | 11.3 | 0.00 | 0.00 | 0.00 | 58 | 812.7 |
| 20260506020808 | 47 | 354 | 9.6 | 10.4 | 0.00 | 0.00 | 0.00 | 58 | 812.7 |
| 20260506020548 | 47 | 355 | 9.6 | 10.4 | 0.00 | 0.00 | 0.00 | 58 | 812.9 |
| 20260506020439 | 47 | 355 | 9.6 | 10.4 | 0.00 | 0.00 | 0.00 | 57 | 812.7 |
| 20260506020218 | 47 | 357 | 8.7 | 9.6 | 0.00 | 0.00 | 0.00 | 57 | 812.7 |
| 20260506020108 | 47 | 0 | 8.7 | 9.6 | 0.00 | 0.00 | 0.00 | 57 | 812.9 |
| 20260506015958 | 47 | 1 | 8.7 | 9.6 | 0.00 | 0.00 | 0.00 | 57 | 812.9 |
| 20260506015848 | 47 | 0 | 9.6 | 9.6 | 0.00 | 0.00 | 0.00 | 57 | 812.9 |
| 20260506015738 | 47 | 0 | 8.7 | 9.6 | 0.00 | 0.00 | 0.00 | 57 | 812.9 |
| 20260506015628 | 47 | 357 | 8.7 | 9.6 | 0.00 | 0.00 | 0.00 | 57 | 812.7 |
| 20260506015518 | 47 | 356 | 8.7 | 9.6 | 0.00 | 0.00 | 0.00 | 57 | 812.9 |
| 20260506015408 | 47 | 354 | 7.8 | 8.7 | 0.00 | 0.00 | 0.00 | 56 | 812.7 |
| 20260506015258 | 47 | 350 | 9.6 | 10.4 | 0.00 | 0.00 | 0.00 | 56 | 812.7 |
| 20260506015148 | 47 | 344 | 8.7 | 9.6 | 0.00 | 0.00 | 0.00 | 56 | 812.9 |
| 20260506014818 | 48 | 344 | 8.7 | 10.4 | 0.00 | 0.00 | 0.00 | 56 | 812.9 |
| 20260506014708 | 48 | 343 | 8.7 | 10.4 | 0.00 | 0.00 | 0.00 | 56 | 812.7 |
| 20260506014558 | 48 | 343 | 8.7 | 10.4 | 0.00 | 0.00 | 0.00 | 56 | 812.7 |
| 20260506014448 | 48 | 341 | 8.7 | 9.6 | 0.00 | 0.00 | 0.00 | 55 | 812.7 |
| 20260506014338 | 48 | 340 | 8.7 | 9.6 | 0.00 | 0.00 | 0.00 | 55 | 812.9 |
| 20260506014228 | 48 | 339 | 7.8 | 8.7 | 0.00 | 0.00 | 0.00 | 55 | 812.7 |
| 20260506014118 | 48 | 341 | 7.8 | 8.7 | 0.00 | 0.00 | 0.00 | 55 | 812.7 |
| 20260506014008 | 48 | 341 | 7.8 | 8.7 | 0.00 | 0.00 | 0.00 | 55 | 812.9 |
| 20260506013859 | 48 | 343 | 7.8 | 8.7 | 0.00 | 0.00 | 0.00 | 55 | 812.9 |
| 20260506013638 | 48 | 345 | 7.8 | 8.7 | 0.00 | 0.00 | 0.00 | 55 | 812.9 |
| 20260506013528 | 48 | 345 | 7.8 | 8.7 | 0.00 | 0.00 | 0.00 | 55 | 812.7 |
| 20260506013418 | 48 | 345 | 7.8 | 8.7 | 0.00 | 0.00 | 0.00 | 55 | 812.7 |
| 20260506013048 | 48 | 346 | 7.8 | 7.8 | 0.00 | 0.00 | 0.00 | 55 | 812.7 |
| 20260506012938 | 48 | 346 | 7.0 | 7.8 | 0.00 | 0.00 | 0.00 | 55 | 812.9 |
| 20260506012828 | 48 | 344 | 7.0 | 7.8 | 0.00 | 0.00 | 0.00 | 55 | 812.9 |
| 20260506012718 | 48 | 344 | 7.8 | 7.8 | 0.00 | 0.00 | 0.00 | 55 | 812.9 |
| 20260506012608 | 48 | 342 | 7.0 | 7.8 | 0.00 | 0.00 | 0.00 | 55 | 812.9 |
| 20260506012348 | 48 | 341 | 7.0 | 7.0 | 0.00 | 0.00 | 0.00 | 55 | 812.9 |
| 20260506012238 | 48 | 340 | 7.0 | 7.0 | 0.00 | 0.00 | 0.00 | 55 | 812.9 |
| 20260506012128 | 48 | 340 | 7.0 | 7.0 | 0.00 | 0.00 | 0.00 | 55 | 812.9 |
| 20260506012018 | 48 | 340 | 7.0 | 7.0 | 0.00 | 0.00 | 0.00 | 55 | 812.9 |
| 20260506011911 | 48 | 342 | 7.0 | 7.0 | 0.00 | 0.00 | 0.00 | 55 | 812.9 |
| 20260506011758 | 48 | 343 | 7.0 | 7.8 | 0.00 | 0.00 | 0.00 | 55 | 812.9 |
| 20260506011538 | 48 | 343 | 7.0 | 7.0 | 0.00 | 0.00 | 0.00 | 55 | 812.9 |
| 20260506011428 | 48 | 345 | 7.0 | 7.0 | 0.00 | 0.00 | 0.00 | 55 | 812.9 |
| 20260506011318 | 48 | 345 | 7.0 | 7.0 | 0.00 | 0.00 | 0.00 | 55 | 813.0 |
| 20260506011208 | 48 | 343 | 7.0 | 7.0 | 0.00 | 0.00 | 0.00 | 55 | 813.0 |
| 20260506011057 | 48 | 342 | 6.1 | 7.0 | 0.00 | 0.00 | 0.00 | 55 | 812.9 |
| 20260506010948 | 48 | 343 | 6.1 | 6.1 | 0.00 | 0.00 | 0.00 | 55 | 812.9 |
| 20260506010838 | 48 | 344 | 6.1 | 6.1 | 0.00 | 0.00 | 0.00 | 55 | 812.9 |
| 20260506010728 | 48 | 344 | 6.1 | 6.1 | 0.00 | 0.00 | 0.00 | 55 | 813.0 |
| 20260506010618 | 48 | 342 | 6.1 | 6.1 | 0.00 | 0.00 | 0.00 | 55 | 813.0 |
| 20260506010358 | 48 | 340 | 6.1 | 6.1 | 0.00 | 0.00 | 0.00 | 55 | 812.9 |
| 20260506010248 | 48 | 341 | 6.1 | 6.1 | 0.00 | 0.00 | 0.00 | 55 | 812.9 |
| 20260506010028 | 48 | 341 | 6.1 | 6.1 | 0.00 | 0.00 | 0.00 | 56 | 813.0 |
| 20260506005918 | 48 | 341 | 6.1 | 6.1 | 0.00 | 0.00 | 0.00 | 56 | 813.0 |
| 20260506005807 | 48 | 343 | 6.1 | 6.1 | 0.00 | 0.00 | 0.00 | 56 | 813.0 |
| 20260506005658 | 48 | 343 | 6.1 | 6.1 | 0.00 | 0.00 | 0.00 | 56 | 813.0 |
| 20260506005328 | 48 | 345 | 7.0 | 7.0 | 0.00 | 0.00 | 0.00 | 55 | 813.0 |
| 20260506005218 | 48 | 345 | 7.0 | 7.0 | 0.00 | 0.00 | 0.00 | 55 | 813.0 |
| 20260506005108 | 48 | 348 | 6.1 | 7.0 | 0.00 | 0.00 | 0.00 | 55 | 813.0 |
| 20260506004957 | 48 | 350 | 6.1 | 7.0 | 0.00 | 0.00 | 0.00 | 55 | 812.9 |
| 20260506004847 | 48 | 352 | 6.1 | 7.0 | 0.00 | 0.00 | 0.00 | 55 | 812.9 |
| 20260506004738 | 48 | 353 | 6.1 | 7.0 | 0.00 | 0.00 | 0.00 | 55 | 812.9 |
| 20260506004628 | 48 | 354 | 6.1 | 7.0 | 0.00 | 0.00 | 0.00 | 56 | 812.9 |
| 20260506004517 | 48 | 357 | 6.1 | 7.0 | 0.00 | 0.00 | 0.00 | 55 | 813.0 |
| 20260506004408 | 48 | 0 | 7.0 | 7.0 | 0.00 | 0.00 | 0.00 | 56 | 812.9 |
| 20260506004257 | 48 | 3 | 7.0 | 7.0 | 0.00 | 0.00 | 0.00 | 55 | 812.9 |
| 20260506004147 | 48 | 4 | 7.0 | 7.0 | 0.00 | 0.00 | 0.00 | 55 | 812.9 |
| 20260506004037 | 48 | 4 | 7.0 | 7.0 | 0.00 | 0.00 | 0.00 | 55 | 812.9 |
| 20260506003927 | 48 | 4 | 7.0 | 7.0 | 0.00 | 0.00 | 0.00 | 55 | 812.9 |
| 20260506003558 | 48 | 2 | 7.0 | 7.0 | 0.00 | 0.00 | 0.00 | 54 | 813.0 |
| 20260506003338 | 48 | 1 | 7.0 | 7.0 | 0.00 | 0.00 | 0.00 | 54 | 813.0 |
| 20260506003118 | 48 | 3 | 7.0 | 7.0 | 0.00 | 0.00 | 0.00 | 54 | 812.9 |
| 20260506003007 | 48 | 5 | 6.1 | 7.0 | 0.00 | 0.00 | 0.00 | 54 | 812.9 |
| 20260506002857 | 48 | 7 | 6.1 | 7.0 | 0.00 | 0.00 | 0.00 | 55 | 812.9 |
| 20260506002638 | 48 | 11 | 6.1 | 7.0 | 0.00 | 0.00 | 0.00 | 55 | 813.0 |
| 20260506002527 | 48 | 12 | 6.1 | 6.1 | 0.00 | 0.00 | 0.00 | 55 | 812.9 |
| 20260506002308 | 48 | 15 | 6.1 | 6.1 | 0.00 | 0.00 | 0.00 | 55 | 813.0 |
| 20260506002047 | 48 | 17 | 6.1 | 6.1 | 0.00 | 0.00 | 0.00 | 55 | 813.0 |
| 20260506001937 | 48 | 20 | 5.2 | 6.1 | 0.00 | 0.00 | 0.00 | 56 | 812.9 |
| 20260506001827 | 48 | 21 | 5.2 | 6.1 | 0.00 | 0.00 | 0.00 | 56 | 813.0 |
| 20260506001717 | 48 | 23 | 5.2 | 5.2 | 0.00 | 0.00 | 0.00 | 56 | 813.0 |
| 20260506001607 | 48 | 24 | 5.2 | 5.2 | 0.00 | 0.00 | 0.00 | 56 | 813.0 |
| 20260506001457 | 48 | 26 | 5.2 | 5.2 | 0.00 | 0.00 | 0.00 | 56 | 813.0 |
| 20260506001347 | 48 | 29 | 5.2 | 5.2 | 0.00 | 0.00 | 0.00 | 56 | 813.0 |
| 20260506001237 | 48 | 31 | 5.2 | 5.2 | 0.00 | 0.00 | 0.00 | 56 | 813.0 |
| 20260506001017 | 48 | 33 | 5.2 | 5.2 | 0.00 | 0.00 | 0.00 | 56 | 813.0 |
| 20260506000907 | 48 | 33 | 5.2 | 5.2 | 0.00 | 0.00 | 0.00 | 56 | 813.0 |
| 20260506000757 | 48 | 34 | 5.2 | 5.2 | 0.00 | 0.00 | 0.00 | 56 | 813.0 |
| 20260506000647 | 48 | 34 | 5.2 | 5.2 | 0.00 | 0.00 | 0.00 | 56 | 813.0 |
| 20260506000537 | 48 | 35 | 5.2 | 5.2 | 0.00 | 0.00 | 0.00 | 56 | 813.0 |
| 20260506000317 | 48 | 37 | 5.2 | 5.2 | 0.00 | 0.00 | 0.00 | 56 | 813.0 |
| 20260506000207 | 48 | 37 | 5.2 | 5.2 | 0.00 | 0.00 | 0.00 | 56 | 813.0 |
| 20260505235837 | 48 | 35 | 5.2 | 5.2 | 0.00 | 0.00 | 0.00 | 57 | 813.0 |
| 20260505235728 | 48 | 37 | 5.2 | 5.2 | 0.00 | 0.00 | 0.00 | 57 | 813.0 |
| 20260505235617 | 48 | 40 | 5.2 | 5.2 | 0.00 | 0.00 | 0.00 | 57 | 813.0 |
| 20260505235507 | 48 | 39 | 5.2 | 5.2 | 0.00 | 0.00 | 0.00 | 57 | 813.0 |
| 20260505235357 | 48 | 40 | 5.2 | 6.1 | 0.00 | 0.00 | 0.00 | 57 | 813.0 |
| 20260505235137 | 48 | 40 | 5.2 | 5.2 | 0.00 | 0.00 | 0.00 | 57 | 813.0 |
| 20260505235027 | 48 | 40 | 5.2 | 6.1 | 0.00 | 0.00 | 0.00 | 57 | 813.0 |
| 20260505234917 | 48 | 39 | 6.1 | 7.0 | 0.00 | 0.00 | 0.00 | 57 | 813.0 |
| 20260505234807 | 48 | 40 | 6.1 | 7.0 | 0.00 | 0.00 | 0.00 | 58 | 813.0 |
| 20260505234657 | 48 | 38 | 6.1 | 7.0 | 0.00 | 0.00 | 0.00 | 57 | 813.0 |
| 20260505234547 | 48 | 38 | 6.1 | 7.0 | 0.00 | 0.00 | 0.00 | 57 | 813.0 |
| 20260505234437 | 48 | 40 | 6.1 | 7.0 | 0.00 | 0.00 | 0.00 | 57 | 813.0 |
| 20260505234327 | 48 | 41 | 6.1 | 7.0 | 0.00 | 0.00 | 0.00 | 57 | 813.0 |
| 20260505234217 | 48 | 40 | 6.1 | 7.0 | 0.00 | 0.00 | 0.00 | 58 | 813.0 |
| 20260505234108 | 48 | 39 | 6.1 | 7.0 | 0.00 | 0.00 | 0.00 | 58 | 813.0 |
| 20260505233957 | 48 | 38 | 6.1 | 7.0 | 0.00 | 0.00 | 0.00 | 58 | 813.0 |
| 20260505233847 | 48 | 37 | 6.1 | 7.0 | 0.00 | 0.00 | 0.00 | 58 | 813.0 |
| 20260505233737 | 48 | 35 | 6.1 | 7.0 | 0.00 | 0.00 | 0.00 | 58 | 813.0 |
| 20260505233517 | 48 | 31 | 6.1 | 7.0 | 0.00 | 0.00 | 0.00 | 58 | 813.0 |
| 20260505233407 | 48 | 28 | 6.1 | 7.0 | 0.00 | 0.00 | 0.00 | 58 | 813.0 |
| 20260505233257 | 48 | 28 | 6.1 | 7.0 | 0.00 | 0.00 | 0.00 | 58 | 813.0 |
| 20260505233147 | 48 | 29 | 6.1 | 7.0 | 0.00 | 0.00 | 0.00 | 58 | 813.0 |
| 20260505233037 | 48 | 31 | 6.1 | 7.0 | 0.00 | 0.00 | 0.00 | 58 | 813.0 |
| 20260505232927 | 48 | 32 | 6.1 | 7.0 | 0.00 | 0.00 | 0.00 | 57 | 813.0 |
| 20260505232817 | 48 | 28 | 6.1 | 7.0 | 0.00 | 0.00 | 0.00 | 57 | 813.0 |
| 20260505232707 | 48 | 30 | 6.1 | 7.0 | 0.00 | 0.00 | 0.00 | 57 | 813.0 |
| 20260505232447 | 48 | 29 | 6.1 | 7.0 | 0.00 | 0.00 | 0.00 | 57 | 813.0 |
| 20260505232337 | 48 | 27 | 6.1 | 7.0 | 0.00 | 0.00 | 0.00 | 57 | 813.0 |
| 20260505232227 | 48 | 24 | 5.2 | 7.0 | 0.00 | 0.00 | 0.00 | 57 | 813.0 |
| 20260505232007 | 48 | 24 | 6.1 | 7.0 | 0.00 | 0.00 | 0.00 | 57 | 813.1 |
| 20260505231857 | 48 | 24 | 6.1 | 7.0 | 0.00 | 0.00 | 0.00 | 57 | 813.0 |
| 20260505231637 | 48 | 22 | 7.0 | 7.8 | 0.00 | 0.00 | 0.00 | 57 | 813.1 |
| 20260505231417 | 48 | 18 | 7.0 | 7.8 | 0.00 | 0.00 | 0.00 | 56 | 813.3 |
| 20260505231307 | 48 | 20 | 7.0 | 7.8 | 0.00 | 0.00 | 0.00 | 56 | 813.3 |
| 20260505231157 | 48 | 13 | 7.0 | 7.8 | 0.00 | 0.00 | 0.00 | 56 | 813.3 |
| 20260505231047 | 48 | 13 | 7.0 | 7.8 | 0.00 | 0.00 | 0.00 | 56 | 813.3 |
| 20260505230937 | 48 | 13 | 7.0 | 7.8 | 0.00 | 0.00 | 0.00 | 56 | 813.1 |
| 20260505230827 | 48 | 10 | 7.0 | 7.0 | 0.00 | 0.00 | 0.00 | 56 | 813.3 |
| 20260505230717 | 48 | 10 | 7.0 | 7.8 | 0.00 | 0.00 | 0.00 | 55 | 813.3 |
| 20260505230607 | 48 | 9 | 7.0 | 7.8 | 0.00 | 0.00 | 0.00 | 56 | 813.3 |
| 20260505230347 | 48 | 357 | 7.0 | 7.8 | 0.00 | 0.00 | 0.00 | 56 | 813.3 |
| 20260505230237 | 48 | 358 | 6.1 | 7.0 | 0.00 | 0.00 | 0.00 | 55 | 813.3 |
| 20260505225907 | 48 | 342 | 5.2 | 6.1 | 0.00 | 0.00 | 0.00 | 55 | 813.3 |
| 20260505225757 | 48 | 335 | 5.2 | 6.1 | 0.00 | 0.00 | 0.00 | 55 | 813.3 |
| 20260505225647 | 48 | 330 | 4.3 | 5.2 | 0.00 | 0.00 | 0.00 | 55 | 813.3 |
| 20260505225537 | 48 | 330 | 4.3 | 4.3 | 0.00 | 0.00 | 0.00 | 56 | 813.3 |
| 20260505225427 | 48 | 328 | 4.3 | 5.2 | 0.00 | 0.00 | 0.00 | 56 | 813.3 |
| 20260505225207 | 48 | 311 | 4.3 | 5.2 | 0.00 | 0.00 | 0.00 | 56 | 813.4 |
| 20260505225057 | 48 | 317 | 2.6 | 3.5 | 0.00 | 0.00 | 0.00 | 56 | 813.4 |
| 20260505224727 | 47 | 307 | 4.3 | 5.2 | 0.00 | 0.00 | 0.00 | 56 | 813.4 |
| 20260505224617 | 47 | 327 | 2.6 | 5.2 | 0.00 | 0.00 | 0.00 | 57 | 813.4 |
| 20260505224507 | 47 | 336 | 2.6 | 3.5 | 0.00 | 0.00 | 0.00 | 57 | 813.4 |
| 20260505224357 | 48 | 327 | 2.6 | 3.5 | 0.00 | 0.00 | 0.00 | 57 | 813.4 |
| 20260505224247 | 48 | 335 | 2.6 | 4.3 | 0.00 | 0.00 | 0.00 | 57 | 813.4 |
| 20260505224137 | 48 | 314 | 2.6 | 3.5 | 0.00 | 0.00 | 0.00 | 57 | 813.4 |
| 20260505224027 | 48 | 305 | 3.5 | 4.3 | 0.00 | 0.00 | 0.00 | 56 | 813.4 |
| 20260505223917 | 48 | 294 | 3.5 | 3.5 | 0.00 | 0.00 | 0.00 | 57 | 813.4 |
| 20260505223807 | 48 | 288 | 3.5 | 4.3 | 0.00 | 0.00 | 0.00 | 56 | 813.4 |
| 20260505223657 | 48 | 294 | 4.3 | 5.2 | 0.00 | 0.00 | 0.00 | 56 | 813.4 |
| 20260505223547 | 48 | 294 | 5.2 | 6.1 | 0.00 | 0.00 | 0.00 | 56 | 813.4 |
| 20260505223437 | 48 | 298 | 5.2 | 6.1 | 0.00 | 0.00 | 0.00 | 57 | 813.4 |
| 20260505223327 | 48 | 289 | 3.5 | 5.2 | 0.00 | 0.00 | 0.00 | 58 | 813.4 |
| 20260505223107 | 48 | 282 | 4.3 | 5.2 | 0.00 | 0.00 | 0.00 | 57 | 813.4 |
| 20260505222957 | 48 | 285 | 4.3 | 5.2 | 0.00 | 0.00 | 0.00 | 57 | 813.4 |
| 20260505222847 | 48 | 280 | 5.2 | 6.1 | 0.00 | 0.00 | 0.00 | 57 | 813.4 |
| 20260505222737 | 48 | 287 | 5.2 | 6.1 | 0.00 | 0.00 | 0.00 | 57 | 813.4 |
| 20260505222517 | 48 | 289 | 4.3 | 5.2 | 0.00 | 0.00 | 0.00 | 58 | 813.4 |
| 20260505222407 | 48 | 287 | 3.5 | 4.3 | 0.00 | 0.00 | 0.00 | 58 | 813.4 |
| 20260505222257 | 48 | 288 | 3.5 | 4.3 | 0.00 | 0.00 | 0.00 | 58 | 813.4 |
| 20260505222147 | 48 | 287 | 2.6 | 3.5 | 0.00 | 0.00 | 0.00 | 58 | 813.4 |
| 20260505222037 | 48 | 296 | 3.5 | 4.3 | 0.00 | 0.00 | 0.00 | 58 | 813.4 |
| 20260505221927 | 48 | 292 | 3.5 | 4.3 | 0.00 | 0.00 | 0.00 | 57 | 813.4 |
| 20260505221817 | 48 | 307 | 3.5 | 4.3 | 0.00 | 0.00 | 0.00 | 57 | 813.4 |
| 20260505221707 | 48 | 295 | 4.3 | 5.2 | 0.00 | 0.00 | 0.00 | 57 | 813.4 |
| 20260505221557 | 48 | 304 | 3.5 | 5.2 | 0.00 | 0.00 | 0.00 | 57 | 813.4 |
| 20260505221337 | 48 | 303 | 4.3 | 5.2 | 0.00 | 0.00 | 0.00 | 57 | 813.4 |
| 20260505221227 | 48 | 304 | 4.3 | 5.2 | 0.00 | 0.00 | 0.00 | 57 | 813.4 |
| 20260505221117 | 48 | 307 | 5.2 | 6.1 | 0.00 | 0.00 | 0.00 | 57 | 813.4 |
| 20260505221007 | 48 | 300 | 4.3 | 5.2 | 0.00 | 0.00 | 0.00 | 58 | 813.4 |
| 20260505220857 | 48 | 293 | 5.2 | 5.2 | 0.00 | 0.00 | 0.00 | 58 | 813.4 |
| 20260505220747 | 48 | 308 | 5.2 | 7.0 | 0.00 | 0.00 | 0.00 | 57 | 813.4 |
| 20260505220527 | 48 | 305 | 4.3 | 5.2 | 0.00 | 0.00 | 0.00 | 58 | 813.4 |
| 20260505220417 | 48 | 292 | 3.5 | 4.3 | 0.00 | 0.00 | 0.00 | 58 | 813.4 |
| 20260505220157 | 48 | 284 | 3.5 | 4.3 | 0.00 | 0.00 | 0.00 | 58 | 813.4 |
| 20260505220047 | 48 | 283 | 4.3 | 5.2 | 0.00 | 0.00 | 0.00 | 58 | 813.4 |
| 20260505215937 | 48 | 282 | 4.3 | 5.2 | 0.00 | 0.00 | 0.00 | 57 | 813.4 |
| 20260505215717 | 48 | 302 | 6.1 | 7.0 | 0.00 | 0.00 | 0.00 | 58 | 813.4 |
| 20260505215607 | 48 | 293 | 6.1 | 7.0 | 0.00 | 0.00 | 0.00 | 58 | 813.4 |
| 20260505215457 | 48 | 289 | 6.1 | 7.0 | 0.00 | 0.00 | 0.00 | 58 | 813.4 |
| 20260505215347 | 48 | 285 | 6.1 | 7.0 | 0.00 | 0.00 | 0.00 | 58 | 813.4 |
| 20260505215237 | 48 | 283 | 7.0 | 7.0 | 0.00 | 0.00 | 0.00 | 59 | 813.4 |
| 20260505215127 | 47 | 284 | 7.0 | 7.0 | 0.00 | 0.00 | 0.00 | 60 | 813.4 |
| 20260505215017 | 47 | 281 | 6.1 | 7.0 | 0.00 | 0.00 | 0.00 | 60 | 813.4 |
| 20260505214907 | 47 | 282 | 7.0 | 7.8 | 0.00 | 0.00 | 0.00 | 61 | 813.4 |
| 20260505214757 | 47 | 280 | 6.1 | 7.0 | 0.00 | 0.00 | 0.00 | 61 | 813.4 |
| 20260505214647 | 47 | 278 | 5.2 | 7.0 | 0.00 | 0.00 | 0.00 | 62 | 813.4 |
| 20260505214537 | 47 | 277 | 6.1 | 7.8 | 0.00 | 0.00 | 0.00 | 62 | 813.5 |
| 20260505214427 | 47 | 272 | 5.2 | 6.1 | 0.00 | 0.00 | 0.00 | 62 | 813.5 |
| 20260505214317 | 47 | 269 | 5.2 | 6.1 | 0.00 | 0.00 | 0.00 | 62 | 813.5 |
| 20260505214207 | 47 | 270 | 5.2 | 7.0 | 0.00 | 0.00 | 0.00 | 62 | 813.5 |
| 20260505214057 | 47 | 269 | 6.1 | 7.0 | 0.00 | 0.00 | 0.00 | 63 | 813.4 |
| 20260505213947 | 47 | 269 | 6.1 | 7.8 | 0.00 | 0.00 | 0.00 | 63 | 813.5 |
| 20260505213837 | 47 | 277 | 5.2 | 7.0 | 0.00 | 0.00 | 0.00 | 63 | 813.5 |
| 20260505213617 | 47 | 259 | 7.0 | 7.8 | 0.00 | 0.00 | 0.00 | 63 | 813.4 |
| 20260505213507 | 47 | 266 | 5.2 | 7.0 | 0.00 | 0.00 | 0.00 | 63 | 813.5 |
| 20260505213137 | 47 | 262 | 4.3 | 5.2 | 0.00 | 0.00 | 0.00 | 62 | 813.5 |
| 20260505213027 | 47 | 264 | 6.1 | 7.8 | 0.00 | 0.00 | 0.00 | 62 | 813.5 |
| 20260505212807 | 47 | 255 | 5.2 | 5.2 | 0.00 | 0.00 | 0.00 | 62 | 813.4 |
| 20260505212657 | 47 | 261 | 6.1 | 7.0 | 0.00 | 0.00 | 0.00 | 62 | 813.4 |
| 20260505212547 | 47 | 254 | 5.2 | 7.8 | 0.00 | 0.00 | 0.00 | 63 | 813.5 |
| 20260505212437 | 47 | 242 | 4.3 | 4.3 | 0.00 | 0.00 | 0.00 | 63 | 813.5 |
| 20260505212327 | 47 | 247 | 4.3 | 5.2 | 0.00 | 0.00 | 0.00 | 63 | 813.5 |
| 20260505212217 | 47 | 240 | 3.5 | 4.3 | 0.00 | 0.00 | 0.00 | 63 | 813.5 |
| 20260505212107 | 47 | 239 | 3.5 | 3.5 | 0.00 | 0.00 | 0.00 | 63 | 813.5 |
| 20260505211957 | 47 | 224 | 3.5 | 3.5 | 0.00 | 0.00 | 0.00 | 63 | 813.5 |
| 20260505211847 | 47 | 205 | 3.5 | 3.5 | 0.00 | 0.00 | 0.00 | 63 | 813.5 |
| 20260505211737 | 47 | 220 | 3.5 | 3.5 | 0.00 | 0.00 | 0.00 | 63 | 813.5 |
| 20260505211627 | 47 | 214 | 2.6 | 2.6 | 0.00 | 0.00 | 0.00 | 63 | 813.5 |
| 20260505211517 | 47 | 211 | 2.6 | 2.6 | 0.00 | 0.00 | 0.00 | 63 | 813.5 |
| 20260505211407 | 47 | 217 | 3.5 | 3.5 | 0.00 | 0.00 | 0.00 | 64 | 813.5 |
| 20260505211257 | 47 | 234 | 3.5 | 3.5 | 0.00 | 0.00 | 0.00 | 64 | 813.5 |
| 20260505211147 | 47 | 228 | 3.5 | 3.5 | 0.00 | 0.00 | 0.00 | 63 | 813.5 |
| 20260505210817 | 47 | 211 | 3.5 | 4.3 | 0.00 | 0.00 | 0.00 | 63 | 813.5 |
| 20260505210707 | 47 | 201 | 3.5 | 3.5 | 0.00 | 0.00 | 0.00 | 62 | 813.5 |
| 20260505210337 | 48 | 211 | 2.6 | 2.6 | 0.00 | 0.00 | 0.00 | 61 | 813.5 |
| 20260505210227 | 48 | 266 | 1.7 | 2.6 | 0.00 | 0.00 | 0.00 | 56 | 813.5 |
| 20260505210117 | 48 | 289 | 1.7 | 1.7 | 0.00 | 0.00 | 0.00 | 56 | 813.5 |
| 20260505210007 | 48 | 308 | 1.7 | 1.7 | 0.00 | 0.00 | 0.00 | 56 | 813.5 |
| 20260505205857 | 48 | 305 | 2.6 | 3.5 | 0.00 | 0.00 | 0.00 | 56 | 813.5 |
| 20260505205747 | 48 | 296 | 1.7 | 3.5 | 0.00 | 0.00 | 0.00 | 56 | 813.5 |
| 20260505205637 | 48 | 310 | 2.6 | 4.3 | 0.00 | 0.00 | 0.00 | 55 | 813.5 |
| 20260505205527 | 47 | 264 | 2.6 | 4.3 | 0.00 | 0.00 | 0.00 | 56 | 813.5 |
| 20260505205417 | 47 | 281 | 1.7 | 3.5 | 0.00 | 0.00 | 0.00 | 57 | 813.5 |
| 20260505205307 | 47 | 255 | 3.5 | 4.3 | 0.00 | 0.00 | 0.00 | 58 | 813.7 |
| 20260505205157 | 47 | 257 | 2.6 | 5.2 | 0.00 | 0.00 | 0.00 | 57 | 813.5 |
| 20260505205047 | 47 | 310 | 1.7 | 3.5 | 0.00 | 0.00 | 0.00 | 57 | 813.5 |
| 20260505204827 | 47 | 261 | 2.6 | 4.3 | 0.00 | 0.00 | 0.00 | 62 | 813.5 |
| 20260505204717 | 47 | 212 | 4.3 | 4.3 | 0.00 | 0.00 | 0.00 | 63 | 813.7 |
| 20260505204457 | 47 | 199 | 3.5 | 4.3 | 0.00 | 0.00 | 0.00 | 63 | 813.7 |
| 20260505204347 | 47 | 188 | 4.3 | 4.3 | 0.00 | 0.00 | 0.00 | 64 | 813.7 |
| 20260505204237 | 47 | 197 | 4.3 | 5.2 | 0.00 | 0.00 | 0.00 | 65 | 813.5 |
| 20260505204127 | 47 | 196 | 4.3 | 4.3 | 0.00 | 0.00 | 0.00 | 66 | 813.5 |
| 20260505204017 | 47 | 197 | 4.3 | 5.2 | 0.00 | 0.00 | 0.00 | 66 | 813.5 |
| 20260505203757 | 47 | 176 | 4.3 | 5.2 | 0.00 | 0.00 | 0.00 | 64 | 813.7 |
| 20260505203647 | 47 | 192 | 5.2 | 6.1 | 0.00 | 0.00 | 0.00 | 64 | 813.7 |
| 20260505203427 | 47 | 195 | 5.2 | 6.1 | 0.00 | 0.00 | 0.00 | 65 | 813.7 |
| 20260505203317 | 47 | 206 | 5.2 | 6.1 | 0.00 | 0.00 | 0.00 | 63 | 813.7 |
| 20260505203207 | 47 | 200 | 5.2 | 6.1 | 0.00 | 0.00 | 0.00 | 62 | 813.7 |
| 20260505203057 | 47 | 206 | 5.2 | 5.2 | 0.00 | 0.00 | 0.00 | 63 | 813.7 |
| 20260505202947 | 47 | 207 | 5.2 | 6.1 | 0.00 | 0.00 | 0.00 | 62 | 813.8 |
| 20260505202837 | 47 | 209 | 5.2 | 6.1 | 0.00 | 0.00 | 0.00 | 62 | 813.8 |
| 20260505202727 | 47 | 202 | 5.2 | 5.2 | 0.00 | 0.00 | 0.00 | 61 | 813.8 |
| 20260505202617 | 47 | 203 | 5.2 | 6.1 | 0.00 | 0.00 | 0.00 | 59 | 813.8 |
| 20260505202507 | 47 | 200 | 5.2 | 5.2 | 0.00 | 0.00 | 0.00 | 57 | 813.7 |
| 20260505202357 | 47 | 199 | 4.3 | 5.2 | 0.00 | 0.00 | 0.00 | 57 | 813.8 |
| 20260505202247 | 47 | 204 | 5.2 | 5.2 | 0.00 | 0.00 | 0.00 | 56 | 813.7 |
| 20260505202137 | 47 | 204 | 4.3 | 5.2 | 0.00 | 0.00 | 0.00 | 56 | 813.7 |
| 20260505202027 | 47 | 207 | 5.2 | 5.2 | 0.00 | 0.00 | 0.00 | 56 | 813.7 |
| 20260505201807 | 47 | 217 | 5.2 | 6.1 | 0.00 | 0.00 | 0.00 | 55 | 813.7 |
| 20260505201657 | 47 | 217 | 4.3 | 5.2 | 0.00 | 0.00 | 0.00 | 55 | 813.8 |
| 20260505201547 | 47 | 219 | 4.3 | 5.2 | 0.00 | 0.00 | 0.00 | 54 | 813.7 |
| 20260505201437 | 47 | 221 | 4.3 | 5.2 | 0.00 | 0.00 | 0.00 | 54 | 813.7 |
| 20260505201107 | 47 | 243 | 4.3 | 5.2 | 0.00 | 0.00 | 0.00 | 57 | 813.7 |
| 20260505200957 | 47 | 229 | 3.5 | 4.3 | 0.00 | 0.00 | 0.00 | 58 | 813.7 |
| 20260505200737 | 47 | 215 | 4.3 | 4.3 | 0.00 | 0.00 | 0.00 | 58 | 813.5 |
| 20260505200627 | 47 | 224 | 4.3 | 5.2 | 0.00 | 0.00 | 0.00 | 58 | 813.7 |
| 20260505200517 | 47 | 234 | 4.3 | 4.3 | 0.00 | 0.00 | 0.00 | 57 | 813.5 |
| 20260505200407 | 47 | 238 | 5.2 | 5.2 | 0.00 | 0.00 | 0.00 | 58 | 813.7 |
| 20260505200257 | 47 | 243 | 5.2 | 5.2 | 0.00 | 0.00 | 0.00 | 59 | 813.7 |
| 20260505200147 | 47 | 231 | 4.3 | 5.2 | 0.00 | 0.00 | 0.00 | 59 | 813.7 |
| 20260505200037 | 47 | 242 | 4.3 | 4.3 | 0.00 | 0.00 | 0.00 | 60 | 813.5 |
| 20260505195927 | 47 | 246 | 3.5 | 3.5 | 0.00 | 0.00 | 0.00 | 59 | 813.5 |
| 20260505195816 | 47 | 241 | 3.5 | 3.5 | 0.00 | 0.00 | 0.00 | 59 | 813.5 |
| 20260505195707 | 47 | 237 | 3.5 | 3.5 | 0.00 | 0.00 | 0.00 | 59 | 813.7 |
| 20260505195557 | 47 | 247 | 3.5 | 3.5 | 0.00 | 0.00 | 0.00 | 59 | 813.5 |
| 20260505195337 | 47 | 254 | 3.5 | 3.5 | 0.00 | 0.00 | 0.00 | 59 | 813.5 |
| 20260505195116 | 47 | 260 | 3.5 | 4.3 | 0.00 | 0.00 | 0.00 | 59 | 813.5 |
| 20260505195007 | 47 | 264 | 3.5 | 4.3 | 0.00 | 0.00 | 0.00 | 59 | 813.7 |
| 20260505194856 | 47 | 261 | 4.3 | 4.3 | 0.00 | 0.00 | 0.00 | 59 | 813.5 |
| 20260505194637 | 47 | 268 | 4.3 | 5.2 | 0.00 | 0.00 | 0.00 | 60 | 813.7 |
| 20260505194527 | 47 | 264 | 4.3 | 5.2 | 0.00 | 0.00 | 0.00 | 61 | 813.7 |
| 20260505194417 | 47 | 267 | 4.3 | 5.2 | 0.00 | 0.00 | 0.00 | 60 | 813.5 |
| 20260505194307 | 47 | 264 | 4.3 | 5.2 | 0.00 | 0.00 | 0.00 | 60 | 813.7 |
| 20260505194157 | 47 | 264 | 3.5 | 4.3 | 0.00 | 0.00 | 0.00 | 60 | 813.5 |
| 20260505193937 | 47 | 261 | 4.3 | 4.3 | 0.00 | 0.00 | 0.00 | 60 | 813.5 |
| 20260505193827 | 47 | 264 | 3.5 | 3.5 | 0.00 | 0.00 | 0.00 | 60 | 813.7 |
| 20260505193717 | 47 | 267 | 3.5 | 3.5 | 0.00 | 0.00 | 0.00 | 60 | 813.7 |
| 20260505193607 | 47 | 264 | 3.5 | 4.3 | 0.00 | 0.00 | 0.00 | 59 | 813.5 |
| 20260505193456 | 47 | 267 | 3.5 | 4.3 | 0.00 | 0.00 | 0.00 | 59 | 813.5 |
| 20260505193347 | 47 | 271 | 3.5 | 3.5 | 0.00 | 0.00 | 0.00 | 58 | 813.7 |
| 20260505193237 | 47 | 272 | 2.6 | 3.5 | 0.00 | 0.00 | 0.00 | 58 | 813.7 |
| 20260505193127 | 47 | 274 | 3.5 | 3.5 | 0.00 | 0.00 | 0.00 | 58 | 813.7 |
| 20260505192906 | 47 | 256 | 3.5 | 3.5 | 0.00 | 0.00 | 0.00 | 58 | 813.7 |
| 20260505192757 | 47 | 248 | 3.5 | 3.5 | 0.00 | 0.00 | 0.00 | 56 | 813.7 |
| 20260505192647 | 47 | 238 | 3.5 | 3.5 | 0.00 | 0.00 | 0.00 | 57 | 813.7 |
| 20260505192537 | 47 | 246 | 2.6 | 3.5 | 0.00 | 0.00 | 0.00 | 57 | 813.7 |
| 20260505192427 | 47 | 266 | 3.5 | 4.3 | 0.00 | 0.00 | 0.00 | 58 | 813.7 |
| 20260505192207 | 47 | 268 | 3.5 | 4.3 | 0.00 | 0.00 | 0.00 | 58 | 813.7 |
| 20260505192057 | 47 | 272 | 4.3 | 4.3 | 0.00 | 0.00 | 0.00 | 58 | 813.7 |
| 20260505191947 | 47 | 271 | 3.5 | 4.3 | 0.00 | 0.00 | 0.00 | 58 | 813.7 |
| 20260505191837 | 47 | 265 | 4.3 | 5.2 | 0.00 | 0.00 | 0.00 | 58 | 813.7 |
| 20260505191727 | 47 | 267 | 4.3 | 5.2 | 0.00 | 0.00 | 0.00 | 56 | 813.7 |
| 20260505191507 | 47 | 259 | 4.3 | 6.1 | 0.00 | 0.00 | 0.00 | 56 | 813.7 |
| 20260505191357 | 47 | 260 | 5.2 | 6.1 | 0.00 | 0.00 | 0.00 | 56 | 813.7 |
| 20260505191247 | 47 | 259 | 6.1 | 7.0 | 0.00 | 0.00 | 0.00 | 56 | 813.5 |
| 20260505191137 | 47 | 262 | 6.1 | 6.1 | 0.00 | 0.00 | 0.00 | 56 | 813.7 |
| 20260505191027 | 46 | 260 | 5.2 | 6.1 | 0.00 | 0.00 | 0.00 | 57 | 813.5 |
| 20260505190916 | 46 | 263 | 6.1 | 6.1 | 0.00 | 0.00 | 0.00 | 57 | 813.7 |
| 20260505190807 | 46 | 263 | 6.1 | 7.0 | 0.00 | 0.00 | 0.00 | 58 | 813.5 |
| 20260505190657 | 46 | 262 | 6.1 | 7.0 | 0.00 | 0.00 | 0.00 | 58 | 813.5 |
| 20260505190548 | 46 | 261 | 6.1 | 7.0 | 0.00 | 0.00 | 0.00 | 58 | 813.5 |
| 20260505190437 | 46 | 261 | 7.0 | 7.8 | 0.00 | 0.00 | 0.00 | 59 | 813.5 |
| 20260505190329 | 46 | 259 | 7.0 | 7.8 | 0.00 | 0.00 | 0.00 | 59 | 813.5 |
| 20260505190107 | 46 | 254 | 7.0 | 8.7 | 0.00 | 0.00 | 0.00 | 56 | 813.5 |
| 20260505185957 | 46 | 259 | 7.8 | 8.7 | 0.00 | 0.00 | 0.00 | 56 | 813.5 |
| 20260505185848 | 47 | 255 | 7.0 | 8.7 | 0.00 | 0.00 | 0.00 | 56 | 813.5 |
| 20260505185738 | 46 | 255 | 7.0 | 7.8 | 0.00 | 0.00 | 0.00 | 56 | 813.5 |
| 20260505185627 | 46 | 257 | 8.7 | 8.7 | 0.00 | 0.00 | 0.00 | 58 | 813.5 |
| 20260505185517 | 46 | 259 | 8.7 | 9.6 | 0.00 | 0.00 | 0.00 | 57 | 813.5 |
| 20260505185407 | 46 | 257 | 7.8 | 9.6 | 0.00 | 0.00 | 0.00 | 57 | 813.5 |
| 20260505185257 | 46 | 254 | 7.0 | 8.7 | 0.00 | 0.00 | 0.00 | 57 | 813.5 |
| 20260505185147 | 46 | 260 | 7.0 | 8.7 | 0.00 | 0.00 | 0.00 | 57 | 813.5 |
| 20260505185036 | 46 | 260 | 7.8 | 8.7 | 0.00 | 0.00 | 0.00 | 57 | 813.4 |
| 20260505184817 | 46 | 256 | 7.8 | 8.7 | 0.00 | 0.00 | 0.00 | 56 | 813.5 |
| 20260505184707 | 46 | 254 | 7.8 | 8.7 | 0.00 | 0.00 | 0.00 | 56 | 813.4 |
| 20260505184557 | 46 | 256 | 8.7 | 9.6 | 0.00 | 0.00 | 0.00 | 56 | 813.5 |
| 20260505184447 | 46 | 251 | 7.8 | 9.6 | 0.00 | 0.00 | 0.00 | 56 | 813.5 |
| 20260505184337 | 46 | 253 | 7.0 | 7.8 | 0.00 | 0.00 | 0.00 | 56 | 813.5 |
| 20260505184227 | 46 | 250 | 7.0 | 7.8 | 0.00 | 0.00 | 0.00 | 57 | 813.4 |
| 20260505184007 | 46 | 257 | 5.2 | 7.0 | 0.00 | 0.00 | 0.00 | 60 | 813.5 |
| 20260505183857 | 46 | 242 | 6.1 | 7.0 | 0.00 | 0.00 | 0.00 | 58 | 813.5 |
| 20260505183746 | 46 | 241 | 7.0 | 7.8 | 0.00 | 0.00 | 0.00 | 56 | 813.4 |
| 20260505183637 | 46 | 247 | 7.0 | 7.8 | 0.00 | 0.00 | 0.00 | 57 | 813.5 |
| 20260505183527 | 46 | 239 | 6.1 | 7.0 | 0.00 | 0.00 | 0.00 | 56 | 813.5 |
| 20260505183417 | 46 | 250 | 7.0 | 7.0 | 0.00 | 0.00 | 0.00 | 56 | 813.5 |
| 20260505183307 | 46 | 239 | 6.1 | 7.0 | 0.00 | 0.00 | 0.00 | 56 | 813.5 |
| 20260505183157 | 46 | 240 | 7.0 | 7.8 | 0.00 | 0.00 | 0.00 | 56 | 813.5 |
| 20260505183047 | 46 | 233 | 6.1 | 7.0 | 0.00 | 0.00 | 0.00 | 56 | 813.5 |
| 20260505182827 | 46 | 233 | 5.2 | 6.1 | 0.00 | 0.00 | 0.00 | 56 | 813.5 |
| 20260505182716 | 46 | 233 | 6.1 | 7.0 | 0.00 | 0.00 | 0.00 | 58 | 813.5 |
| 20260505182606 | 46 | 223 | 5.2 | 6.1 | 0.00 | 0.00 | 0.00 | 58 | 813.5 |
| 20260505182456 | 46 | 228 | 5.2 | 5.2 | 0.00 | 0.00 | 0.00 | 60 | 813.4 |
| 20260505182237 | 46 | 226 | 6.1 | 7.0 | 0.00 | 0.00 | 0.00 | 60 | 813.4 |
| 20260505182126 | 47 | 222 | 6.1 | 7.0 | 0.00 | 0.00 | 0.00 | 61 | 813.4 |
| 20260505182017 | 47 | 213 | 6.1 | 7.0 | 0.00 | 0.00 | 0.00 | 61 | 813.5 |
| 20260505181906 | 47 | 227 | 5.2 | 6.1 | 0.00 | 0.00 | 0.00 | 62 | 813.4 |
| 20260505181647 | 47 | 263 | 6.1 | 7.8 | 0.00 | 0.00 | 0.00 | 56 | 813.4 |
| 20260505181537 | 48 | 252 | 5.2 | 7.0 | 0.00 | 0.00 | 0.00 | 56 | 813.4 |
| 20260505181427 | 48 | 267 | 5.2 | 6.1 | 0.00 | 0.00 | 0.00 | 56 | 813.5 |
| 20260505181317 | 47 | 284 | 7.0 | 8.7 | 0.00 | 0.00 | 0.00 | 56 | 813.4 |
| 20260505180949 | 47 | 281 | 6.1 | 7.0 | 0.00 | 0.00 | 0.00 | 57 | 813.4 |
| 20260505180617 | 47 | 256 | 4.3 | 6.1 | 0.00 | 0.00 | 0.00 | 61 | 813.4 |
| 20260505180507 | 47 | 222 | 3.5 | 4.3 | 0.00 | 0.00 | 0.00 | 61 | 813.5 |
| 20260505180356 | 47 | 243 | 3.5 | 6.1 | 0.00 | 0.00 | 0.00 | 59 | 813.4 |
| 20260505180249 | 47 | 278 | 3.5 | 4.3 | 0.00 | 0.00 | 0.00 | 58 | 813.4 |
| 20260505180137 | 47 | 303 | 3.5 | 4.3 | 0.00 | 0.00 | 0.00 | 58 | 813.4 |
| 20260505180027 | 46 | 301 | 5.2 | 7.0 | 0.00 | 0.00 | 0.00 | 58 | 813.4 |
| 20260505175920 | 46 | 291 | 5.2 | 6.1 | 0.00 | 0.00 | 0.00 | 59 | 813.4 |
| 20260505175806 | 45 | 289 | 5.2 | 6.1 | 0.00 | 0.00 | 0.00 | 60 | 813.4 |
| 20260505175656 | 45 | 289 | 4.3 | 5.2 | 0.00 | 0.00 | 0.00 | 61 | 813.4 |
| 20260505175437 | 45 | 202 | 4.3 | 5.2 | 0.00 | 0.00 | 0.00 | 70 | 813.4 |
| 20260505175326 | 45 | 205 | 5.2 | 6.1 | 0.00 | 0.00 | 0.00 | 70 | 813.4 |
| 20260505175217 | 45 | 221 | 6.1 | 7.0 | 0.00 | 0.00 | 0.00 | 70 | 813.4 |
| 20260505175106 | 45 | 234 | 6.1 | 7.0 | 0.00 | 0.00 | 0.00 | 68 | 813.4 |
| 20260505174956 | 45 | 233 | 5.2 | 6.1 | 0.00 | 0.00 | 0.00 | 64 | 813.4 |
| 20260505174847 | 45 | 197 | 4.3 | 5.2 | 0.00 | 0.00 | 0.00 | 63 | 813.4 |
| 20260505174738 | 45 | 185 | 4.3 | 5.2 | 0.00 | 0.00 | 0.00 | 64 | 813.4 |
| 20260505174627 | 45 | 183 | 3.5 | 5.2 | 0.00 | 0.00 | 0.00 | 65 | 813.3 |
| 20260505174517 | 45 | 198 | 3.5 | 4.3 | 0.00 | 0.00 | 0.00 | 64 | 813.3 |
| 20260505174406 | 45 | 199 | 4.3 | 5.2 | 0.00 | 0.00 | 0.00 | 65 | 813.3 |
| 20260505174257 | 45 | 208 | 4.3 | 5.2 | 0.00 | 0.00 | 0.00 | 66 | 813.3 |
| 20260505174147 | 44 | 190 | 5.2 | 6.1 | 0.00 | 0.00 | 0.00 | 65 | 813.4 |
| 20260505173817 | 44 | 207 | 5.2 | 5.2 | 0.00 | 0.00 | 0.00 | 67 | 813.4 |
| 20260505173707 | 44 | 200 | 5.2 | 6.1 | 0.00 | 0.00 | 0.00 | 68 | 813.4 |
| 20260505173556 | 44 | 219 | 5.2 | 6.1 | 0.00 | 0.00 | 0.00 | 67 | 813.4 |
| 20260505173447 | 44 | 228 | 5.2 | 7.0 | 0.00 | 0.00 | 0.00 | 68 | 813.4 |
| 20260505173337 | 44 | 225 | 5.2 | 6.1 | 0.00 | 0.00 | 0.00 | 67 | 813.4 |
| 20260505173227 | 44 | 233 | 5.2 | 7.0 | 0.00 | 0.00 | 0.00 | 68 | 813.4 |
| 20260505173116 | 44 | 238 | 6.1 | 7.8 | 0.00 | 0.00 | 0.00 | 68 | 813.4 |
| 20260505173006 | 44 | 243 | 5.2 | 7.0 | 0.00 | 0.00 | 0.00 | 65 | 813.3 |
| 20260505172857 | 44 | 238 | 6.1 | 7.0 | 0.00 | 0.00 | 0.00 | 66 | 813.4 |
| 20260505172747 | 44 | 262 | 6.1 | 7.8 | 0.00 | 0.00 | 0.00 | 66 | 813.4 |
| 20260505172637 | 44 | 267 | 6.1 | 7.8 | 0.00 | 0.00 | 0.00 | 69 | 813.4 |
| 20260505172307 | 44 | 243 | 5.2 | 7.0 | 0.00 | 0.00 | 0.00 | 66 | 813.3 |
| 20260505172157 | 44 | 254 | 7.8 | 10.4 | 0.00 | 0.00 | 0.00 | 66 | 813.3 |
| 20260505172046 | 45 | 253 | 8.7 | 11.3 | 0.00 | 0.00 | 0.00 | 72 | 813.3 |
| 20260505171936 | 45 | 247 | 5.2 | 7.0 | 0.00 | 0.00 | 0.00 | 72 | 813.3 |
| 20260505171827 | 44 | 247 | 5.2 | 7.0 | 0.00 | 0.00 | 0.00 | 69 | 813.4 |
| 20260505171717 | 44 | 251 | 4.3 | 5.2 | 0.00 | 0.00 | 0.00 | 70 | 813.4 |
| 20260505171457 | 44 | 209 | 4.3 | 12.2 | 0.00 | 0.00 | 0.00 | 68 | 813.4 |
| 20260505171347 | 44 | 185 | 5.2 | 10.4 | 0.00 | 0.00 | 0.00 | 66 | 813.4 |
| 20260505171236 | 44 | 153 | 8.7 | 13.9 | 0.00 | 0.00 | 0.00 | 66 | 813.4 |
| 20260505171126 | 44 | 143 | 15.6 | 21.7 | 0.00 | 0.00 | 0.00 | 74 | 813.4 |
| 20260505171017 | 44 | 141 | 19.1 | 79.1 | 0.01 | 0.00 | 0.00 | 77 | 813.4 |
| 20260505170907 | 44 | 139 | 11.3 | 18.2 | 0.01 | 0.00 | 0.00 | 76 | 813.5 |
| 20260505170756 | 44 | 87 | 14.8 | 18.2 | 0.01 | 0.00 | 0.00 | 79 | 813.7 |
| 20260505170647 | 44 | 66 | 16.5 | 20.0 | 0.00 | 0.00 | 0.00 | 80 | 813.5 |
| 20260505170537 | 44 | 71 | 18.2 | 21.7 | 0.00 | 0.00 | 0.00 | 84 | 813.4 |
| 20260505170427 | 45 | 81 | 13.9 | 18.2 | 0.00 | 0.00 | 0.00 | 82 | 813.5 |
| 20260505170317 | 45 | 99 | 10.4 | 13.9 | 0.00 | 0.00 | 0.00 | 80 | 813.5 |
| 20260505170206 | 45 | 134 | 9.6 | 12.2 | 0.00 | 0.00 | 0.00 | 78 | 813.5 |
| 20260505170057 | 45 | 142 | 10.4 | 13.0 | 0.00 | 0.00 | 0.00 | 78 | 813.4 |
| 20260505165946 | 45 | 146 | 12.2 | 13.9 | 0.00 | 0.00 | 0.00 | 80 | 813.4 |
| 20260505165837 | 45 | 143 | 12.2 | 13.9 | 0.00 | 0.00 | 0.00 | 82 | 813.4 |
| 20260505165726 | 46 | 139 | 10.4 | 13.0 | 0.00 | 0.00 | 0.00 | 79 | 813.4 |
| 20260505165617 | 47 | 143 | 8.7 | 10.4 | 0.00 | 0.00 | 0.00 | 79 | 813.4 |
| 20260505165507 | 47 | 187 | 2.6 | 5.2 | 0.00 | 0.00 | 0.00 | 78 | 813.4 |
| 20260505165357 | 47 | 270 | 2.6 | 3.5 | 0.00 | 0.00 | 0.00 | 80 | 813.4 |
| 20260505165247 | 47 | 274 | 3.5 | 5.2 | 0.00 | 0.00 | 0.00 | 80 | 813.4 |
| 20260505165026 | 46 | 244 | 4.3 | 6.1 | 0.00 | 0.00 | 0.00 | 79 | 813.4 |
| 20260505164916 | 46 | 238 | 4.3 | 6.1 | 0.00 | 0.00 | 0.00 | 78 | 813.3 |
| 20260505164807 | 46 | 237 | 5.2 | 7.0 | 0.00 | 0.00 | 0.00 | 84 | 813.4 |
| 20260505164657 | 46 | 240 | 5.2 | 6.1 | 0.00 | 0.00 | 0.00 | 84 | 813.4 |
| 20260505164546 | 46 | 238 | 5.2 | 6.1 | 0.00 | 0.00 | 0.00 | 87 | 813.4 |
| 20260505164437 | 46 | 247 | 5.2 | 6.1 | 0.00 | 0.00 | 0.00 | 86 | 813.3 |
| 20260505164327 | 46 | 245 | 5.2 | 7.0 | 0.00 | 0.00 | 0.00 | 83 | 813.3 |
| 20260505164216 | 46 | 244 | 6.1 | 7.8 | 0.00 | 0.00 | 0.00 | 87 | 813.3 |
| 20260505164106 | 46 | 242 | 6.1 | 7.8 | 0.00 | 0.00 | 0.00 | 87 | 813.3 |
| 20260505163956 | 46 | 242 | 5.2 | 7.0 | 0.00 | 0.00 | 0.00 | 87 | 813.3 |
| 20260505163847 | 46 | 244 | 6.1 | 7.0 | 0.00 | 0.00 | 0.00 | 86 | 813.3 |
| 20260505163736 | 46 | 247 | 6.1 | 8.7 | 0.00 | 0.00 | 0.00 | 88 | 813.3 |
| 20260505163627 | 46 | 249 | 5.2 | 7.8 | 0.00 | 0.00 | 0.00 | 89 | 813.3 |
| 20260505163517 | 46 | 255 | 5.2 | 7.0 | 0.00 | 0.00 | 0.00 | 88 | 813.3 |
| 20260505163407 | 46 | 261 | 6.1 | 8.7 | 0.00 | 0.00 | 0.00 | 90 | 813.3 |
| 20260505163146 | 46 | 254 | 6.1 | 8.7 | 0.00 | 0.00 | 0.00 | 87 | 813.3 |
| 20260505163036 | 46 | 246 | 7.0 | 8.7 | 0.00 | 0.00 | 0.00 | 87 | 813.3 |
| 20260505162926 | 46 | 236 | 6.1 | 7.8 | 0.00 | 0.00 | 0.00 | 86 | 813.1 |
| 20260505162818 | 46 | 241 | 6.1 | 8.7 | 0.00 | 0.00 | 0.00 | 90 | 813.1 |
| 20260505162707 | 46 | 259 | 6.1 | 7.8 | 0.00 | 0.00 | 0.00 | 90 | 813.3 |
| 20260505162557 | 46 | 270 | 5.2 | 7.8 | 0.00 | 0.00 | 0.00 | 90 | 813.3 |
| 20260505162447 | 46 | 243 | 5.2 | 7.8 | 0.00 | 0.00 | 0.00 | 85 | 813.3 |
| 20260505162343 | 46 | 223 | 5.2 | 7.0 | 0.00 | 0.00 | 0.00 | 84 | 813.3 |
| 20260505162229 | 46 | 230 | 5.2 | 7.8 | 0.00 | 0.00 | 0.00 | 88 | 813.3 |
| 20260505162117 | 46 | 241 | 5.2 | 7.0 | 0.00 | 0.00 | 0.00 | 89 | 813.3 |
| 20260505162006 | 46 | 248 | 5.2 | 7.0 | 0.00 | 0.00 | 0.00 | 89 | 813.3 |
| 20260505161856 | 46 | 244 | 6.1 | 8.7 | 0.00 | 0.00 | 0.00 | 91 | 813.3 |
| 20260505161746 | 46 | 250 | 7.0 | 9.6 | 0.00 | 0.00 | 0.00 | 90 | 813.3 |
| 20260505161636 | 46 | 245 | 7.0 | 8.7 | 0.00 | 0.00 | 0.00 | 90 | 813.3 |
| 20260505161526 | 45 | 243 | 6.1 | 8.7 | 0.00 | 0.00 | 0.00 | 88 | 813.3 |
| 20260505161417 | 46 | 234 | 7.0 | 10.4 | 0.00 | 0.00 | 0.00 | 90 | 813.3 |
| 20260505161306 | 46 | 253 | 7.8 | 10.4 | 0.00 | 0.00 | 0.00 | 91 | 813.3 |
| 20260505161156 | 46 | 248 | 7.8 | 10.4 | 0.00 | 0.00 | 0.00 | 91 | 813.3 |
| 20260505161046 | 46 | 245 | 7.8 | 10.4 | 0.00 | 0.00 | 0.00 | 90 | 813.1 |
| 20260505160937 | 46 | 242 | 7.0 | 11.3 | 0.00 | 0.00 | 0.00 | 89 | 813.1 |
| 20260505160606 | 46 | 258 | 5.2 | 9.6 | 0.00 | 0.00 | 0.00 | 89 | 813.3 |
| 20260505160456 | 46 | 246 | 6.1 | 8.7 | 0.00 | 0.00 | 0.00 | 90 | 813.3 |
| 20260505160347 | 45 | 246 | 7.0 | 9.6 | 0.00 | 0.00 | 0.00 | 88 | 813.1 |
| 20260505160236 | 45 | 249 | 7.0 | 9.6 | 0.00 | 0.00 | 0.00 | 89 | 813.3 |
| 20260505160126 | 45 | 249 | 7.0 | 8.7 | 0.00 | 0.00 | 0.00 | 90 | 813.3 |
| 20260505153326 | 46 | 141 | 0.9 | 3.5 | 0.00 | 0.00 | 0.00 | 65 | 813.4 |
| 20260505153216 | 46 | 123 | 3.5 | 4.3 | 0.00 | 0.00 | 0.00 | 66 | 813.3 |
| 20260505153107 | 45 | 152 | 4.3 | 6.1 | 0.00 | 0.00 | 0.00 | 66 | 813.3 |
| 20260505153012 | 45 | 138 | 3.5 | 5.2 | 0.00 | 0.00 | 0.00 | 67 | 813.3 |
| 20260505152743 | 46 | 173 | 1.7 | 2.6 | 0.00 | 0.00 | 0.00 | 67 | 813.4 |
| 20260505152629 | 46 | 206 | 1.7 | 2.6 | 0.00 | 0.00 | 0.00 | 68 | 813.4 |
| 20260505152517 | 46 | 211 | 3.5 | 4.3 | 0.00 | 0.00 | 0.00 | 67 | 813.4 |
| 20260505152410 | 46 | 243 | 3.5 | 6.1 | 0.00 | 0.00 | 0.00 | 62 | 813.4 |
| 20260505152257 | 46 | 264 | 4.3 | 8.7 | 0.00 | 0.00 | 0.00 | 60 | 813.5 |
| 20260505152147 | 46 | 273 | 3.5 | 5.2 | 0.00 | 0.00 | 0.00 | 60 | 813.5 |
| 20260505152037 | 46 | 296 | 4.3 | 7.0 | 0.00 | 0.00 | 0.00 | 59 | 813.7 |
| 20260505151926 | 46 | 309 | 6.1 | 87.8 | 0.00 | 0.00 | 0.00 | 58 | 813.8 |
| 20260505151817 | 46 | 338 | 37.4 | 128.6 | 0.01 | 0.00 | 0.00 | 58 | 813.8 |
| 20260505151556 | 46 | 2 | 11.3 | 21.7 | 0.00 | 0.00 | 0.00 | 68 | 813.7 |
| 20260505151350 | 47 | 248 | 19.1 | 123.4 | 0.00 | 0.00 | 0.00 | 77 | 813.8 |
| 20260505151227 | 47 | 261 | 4.3 | 7.0 | 0.00 | 0.00 | 0.00 | 75 | 813.8 |
| 20260505151118 | 47 | 192 | 7.8 | 13.0 | 0.00 | 0.00 | 0.00 | 76 | 813.8 |
| 20260505150856 | 47 | 177 | 7.0 | 10.4 | 0.00 | 0.00 | 0.00 | 76 | 813.8 |
| 20260505150746 | 47 | 173 | 14.8 | 86.9 | 0.00 | 0.00 | 0.00 | 76 | 813.7 |
| 20260505150417 | 47 | 238 | 3.5 | 7.0 | 0.00 | 0.00 | 0.00 | 77 | 813.5 |
| 20260505150156 | 47 | 260 | 5.2 | 8.7 | 0.00 | 0.00 | 0.00 | 76 | 813.4 |
| 20260505140339 | 52 | 229 | 4.3 | 6.1 | 0.00 | 0.00 | 0.00 | 64 | 813.7 |
| 20260505140226 | 53 | 259 | 5.2 | 10.4 | 0.00 | 0.00 | 0.00 | 69 | 813.7 |
| 20260505140116 | 53 | 274 | 7.0 | 10.4 | 0.00 | 0.00 | 0.00 | 68 | 813.7 |
| 20260505130256 | 49 | 205 | 3.5 | 6.1 | 0.00 | 0.00 | 0.00 | 71 | 814.1 |
| 20260505130146 | 49 | 257 | 2.6 | 7.0 | 0.00 | 0.00 | 0.00 | 71 | 814.2 |
| 20260505124856 | 52 | 239 | 3.5 | 10.4 | 0.00 | 0.00 | 0.00 | 62 | 813.9 |
| 20260505124746 | 52 | 294 | 8.7 | 13.9 | 0.00 | 0.00 | 0.00 | 63 | 813.9 |
| 20260505124636 | 53 | 320 | 8.7 | 12.2 | 0.00 | 0.00 | 0.00 | 61 | 813.9 |
| 20260505124527 | 53 | 313 | 7.8 | 11.3 | 0.00 | 0.00 | 0.00 | 62 | 814.2 |
| 20260505124417 | 53 | 330 | 6.1 | 8.7 | 0.00 | 0.00 | 0.00 | 59 | 814.2 |
| 20260505124307 | 53 | 346 | 5.2 | 10.4 | 0.00 | 0.00 | 0.00 | 54 | 814.2 |
| 20260505124156 | 53 | 350 | 3.5 | 7.0 | 0.00 | 0.00 | 0.00 | 48 | 814.2 |
| 20260505124046 | 53 | 18 | 3.5 | 7.0 | 0.00 | 0.00 | 0.00 | 42 | 814.2 |
| 20260505123828 | 52 | 80 | 5.2 | 8.7 | 0.00 | 0.00 | 0.00 | 45 | 814.2 |
| 20260505123717 | 52 | 28 | 4.3 | 7.0 | 0.00 | 0.00 | 0.00 | 45 | 814.2 |
| 20260505123606 | 52 | 22 | 5.2 | 10.4 | 0.00 | 0.00 | 0.00 | 40 | 814.2 |
| 20260505123456 | 52 | 40 | 8.7 | 11.3 | 0.00 | 0.00 | 0.00 | 42 | 814.2 |
| 20260505123347 | 51 | 47 | 7.8 | 11.3 | 0.00 | 0.00 | 0.00 | 45 | 814.2 |
| 20260505123236 | 51 | 17 | 8.7 | 13.0 | 0.00 | 0.00 | 0.00 | 43 | 814.2 |
| 20260505123126 | 51 | 8 | 10.4 | 16.5 | 0.00 | 0.00 | 0.00 | 43 | 814.1 |
| 20260505123016 | 52 | 18 | 8.7 | 15.6 | 0.00 | 0.00 | 0.00 | 43 | 814.1 |
| 20260505122906 | 52 | 32 | 9.6 | 16.5 | 0.00 | 0.00 | 0.00 | 46 | 813.9 |
| 20260505122756 | 51 | 14 | 7.0 | 9.6 | 0.00 | 0.00 | 0.00 | 44 | 814.1 |
| 20260505122538 | 51 | 354 | 7.8 | 13.9 | 0.00 | 0.00 | 0.00 | 45 | 814.1 |
| 20260505122426 | 52 | 347 | 13.0 | 19.1 | 0.00 | 0.00 | 0.00 | 44 | 813.8 |
| 20260505122318 | 52 | 26 | 10.4 | 18.2 | 0.00 | 0.00 | 0.00 | 43 | 814.1 |
| 20260505122056 | 52 | 51 | 7.8 | 14.8 | 0.00 | 0.00 | 0.00 | 42 | 814.1 |
| 20260505121836 | 52 | 21 | 5.2 | 10.4 | 0.00 | 0.00 | 0.00 | 42 | 814.1 |
| 20260505121616 | 51 | 10 | 8.7 | 14.8 | 0.00 | 0.00 | 0.00 | 42 | 813.9 |
| 20260505121356 | 51 | 64 | 7.8 | 11.3 | 0.00 | 0.00 | 0.00 | 44 | 814.2 |
| 20260505121246 | 51 | 42 | 7.8 | 13.9 | 0.00 | 0.00 | 0.00 | 46 | 814.2 |